<?xml version="1.0" encoding="UTF-8" standalone="no" ?>
<gpx xmlns="http://www.topografix.com/GPX/1/1" xmlns:xsi="http://www.w3.org/2001/XMLSchema-instance" xsi:schemaLocation="http://www.topografix.com/GPX/1/1 http://www.topografix.com/GPX/1/1/gpx.xsd" version="1.1" creator="VisuGPX - https://www.visugpx.com">
  <metadata>
    <name>Rando 17 Km - Octobre Rose</name>
  </metadata>
  <wpt lat="47.04967" lon="-0.87645">
    <ele>80.2</ele>
    <name><![CDATA[Parking Stade omnisports de Cholet]]></name>
  </wpt>
  <wpt lat="47.03378" lon="-0.85199">
    <ele>102.8</ele>
    <name><![CDATA[Ravitaillement]]></name>
  </wpt>
  <wpt lat="47.04967" lon="-0.87646">
    <ele>80.3</ele>
    <name><![CDATA[Parking Stade omnisports de Cholet]]></name>
  </wpt>
  <trk>
    <name><![CDATA[Rando 17 Km - Octobre Rose]]></name>
    <extensions>
      <line xmlns="http://www.topografix.com/GPX/gpx_style/0/2">
        <color>1e9461</color>
        <opacity>1</opacity>
        <width>3</width>
          <extensions>
            <sens>1</sens>
          </extensions>
      </line>
    </extensions>
    <trkseg>
      <trkpt lat="47.04967" lon="-0.87645">
        <ele>79</ele>
        <time>2022-07-08T18:06:18+02:00</time>
      </trkpt>
      <trkpt lat="47.04951" lon="-0.87618">
        <ele>79</ele>
        <time>2022-07-08T18:06:18+02:00</time>
      </trkpt>
      <trkpt lat="47.04944" lon="-0.87606">
        <ele>79</ele>
        <time>2022-07-08T18:06:18+02:00</time>
      </trkpt>
      <trkpt lat="47.04938" lon="-0.87594">
        <ele>82</ele>
        <time>2022-07-08T18:06:18+02:00</time>
      </trkpt>
      <trkpt lat="47.04931" lon="-0.87583">
        <ele>82</ele>
        <time>2022-07-08T18:06:18+02:00</time>
      </trkpt>
      <trkpt lat="47.04925" lon="-0.87573">
        <ele>82</ele>
        <time>2022-07-08T18:06:18+02:00</time>
      </trkpt>
      <trkpt lat="47.04922" lon="-0.8756">
        <ele>82</ele>
        <time>2022-07-08T18:06:18+02:00</time>
      </trkpt>
      <trkpt lat="47.04927" lon="-0.87546">
        <ele>80</ele>
        <time>2022-07-08T18:06:18+02:00</time>
      </trkpt>
      <trkpt lat="47.04931" lon="-0.87534">
        <ele>79</ele>
        <time>2022-07-08T18:06:18+02:00</time>
      </trkpt>
      <trkpt lat="47.04936" lon="-0.87522">
        <ele>78</ele>
        <time>2022-07-08T18:06:18+02:00</time>
      </trkpt>
      <trkpt lat="47.0494" lon="-0.87511">
        <ele>77</ele>
        <time>2022-07-08T18:06:18+02:00</time>
      </trkpt>
      <trkpt lat="47.04946" lon="-0.875">
        <ele>77</ele>
        <time>2022-07-08T18:06:18+02:00</time>
      </trkpt>
      <trkpt lat="47.0495" lon="-0.87486">
        <ele>77</ele>
        <time>2022-07-08T18:06:18+02:00</time>
      </trkpt>
      <trkpt lat="47.04952" lon="-0.87473">
        <ele>77</ele>
        <time>2022-07-08T18:06:18+02:00</time>
      </trkpt>
      <trkpt lat="47.04957" lon="-0.8746">
        <ele>78</ele>
        <time>2022-07-08T18:06:18+02:00</time>
      </trkpt>
      <trkpt lat="47.04963" lon="-0.87449">
        <ele>78</ele>
        <time>2022-07-08T18:06:18+02:00</time>
      </trkpt>
      <trkpt lat="47.0497" lon="-0.8744">
        <ele>78</ele>
        <time>2022-07-08T18:06:18+02:00</time>
      </trkpt>
      <trkpt lat="47.04977" lon="-0.87432">
        <ele>78</ele>
        <time>2022-07-08T18:06:18+02:00</time>
      </trkpt>
      <trkpt lat="47.04986" lon="-0.8743">
        <ele>76</ele>
        <time>2022-07-08T18:06:18+02:00</time>
      </trkpt>
      <trkpt lat="47.04996" lon="-0.8743">
        <ele>76</ele>
        <time>2022-07-08T18:06:18+02:00</time>
      </trkpt>
      <trkpt lat="47.05005" lon="-0.87427">
        <ele>76</ele>
        <time>2022-07-08T18:06:18+02:00</time>
      </trkpt>
      <trkpt lat="47.05006" lon="-0.87412">
        <ele>75</ele>
        <time>2022-07-08T18:06:18+02:00</time>
      </trkpt>
      <trkpt lat="47.05008" lon="-0.87398">
        <ele>76</ele>
        <time>2022-07-08T18:06:18+02:00</time>
      </trkpt>
      <trkpt lat="47.05002" lon="-0.87387">
        <ele>76</ele>
        <time>2022-07-08T18:06:18+02:00</time>
      </trkpt>
      <trkpt lat="47.04992" lon="-0.87388">
        <ele>75</ele>
        <time>2022-07-08T18:06:18+02:00</time>
      </trkpt>
      <trkpt lat="47.04982" lon="-0.87385">
        <ele>75</ele>
        <time>2022-07-08T18:06:18+02:00</time>
      </trkpt>
      <trkpt lat="47.04973" lon="-0.87379">
        <ele>74</ele>
        <time>2022-07-08T18:06:18+02:00</time>
      </trkpt>
      <trkpt lat="47.04966" lon="-0.87369">
        <ele>76</ele>
        <time>2022-07-08T18:06:18+02:00</time>
      </trkpt>
      <trkpt lat="47.0496" lon="-0.87358">
        <ele>76</ele>
        <time>2022-07-08T18:06:18+02:00</time>
      </trkpt>
      <trkpt lat="47.04954" lon="-0.87348">
        <ele>75</ele>
        <time>2022-07-08T18:06:18+02:00</time>
      </trkpt>
      <trkpt lat="47.04949" lon="-0.87337">
        <ele>75</ele>
        <time>2022-07-08T18:06:18+02:00</time>
      </trkpt>
      <trkpt lat="47.04941" lon="-0.87329">
        <ele>74</ele>
        <time>2022-07-08T18:06:18+02:00</time>
      </trkpt>
      <trkpt lat="47.04936" lon="-0.87323">
        <ele>75</ele>
        <time>2022-07-08T18:06:18+02:00</time>
      </trkpt>
      <trkpt lat="47.04931" lon="-0.87312">
        <ele>74</ele>
        <time>2022-07-08T18:06:18+02:00</time>
      </trkpt>
      <trkpt lat="47.04923" lon="-0.873">
        <ele>74</ele>
        <time>2022-07-08T18:06:18+02:00</time>
      </trkpt>
      <trkpt lat="47.04924" lon="-0.87294">
        <ele>75</ele>
        <time>2022-07-08T18:06:18+02:00</time>
      </trkpt>
      <trkpt lat="47.04926" lon="-0.8728">
        <ele>74</ele>
        <time>2022-07-08T18:06:18+02:00</time>
      </trkpt>
      <trkpt lat="47.04929" lon="-0.87268">
        <ele>75</ele>
        <time>2022-07-08T18:06:18+02:00</time>
      </trkpt>
      <trkpt lat="47.04928" lon="-0.87253">
        <ele>77</ele>
        <time>2022-07-08T18:06:18+02:00</time>
      </trkpt>
      <trkpt lat="47.04922" lon="-0.87242">
        <ele>78</ele>
        <time>2022-07-08T18:06:18+02:00</time>
      </trkpt>
      <trkpt lat="47.04916" lon="-0.87231">
        <ele>77</ele>
        <time>2022-07-08T18:06:18+02:00</time>
      </trkpt>
      <trkpt lat="47.04908" lon="-0.87223">
        <ele>77</ele>
        <time>2022-07-08T18:06:18+02:00</time>
      </trkpt>
      <trkpt lat="47.04902" lon="-0.87213">
        <ele>76</ele>
        <time>2022-07-08T18:06:18+02:00</time>
      </trkpt>
      <trkpt lat="47.04896" lon="-0.87202">
        <ele>76</ele>
        <time>2022-07-08T18:06:18+02:00</time>
      </trkpt>
      <trkpt lat="47.04888" lon="-0.87193">
        <ele>76</ele>
        <time>2022-07-08T18:06:18+02:00</time>
      </trkpt>
      <trkpt lat="47.04878" lon="-0.8719">
        <ele>76</ele>
        <time>2022-07-08T18:06:18+02:00</time>
      </trkpt>
      <trkpt lat="47.04869" lon="-0.87188">
        <ele>75</ele>
        <time>2022-07-08T18:06:18+02:00</time>
      </trkpt>
      <trkpt lat="47.04858" lon="-0.87188">
        <ele>75</ele>
        <time>2022-07-08T18:06:18+02:00</time>
      </trkpt>
      <trkpt lat="47.04848" lon="-0.87188">
        <ele>75</ele>
        <time>2022-07-08T18:06:18+02:00</time>
      </trkpt>
      <trkpt lat="47.04839" lon="-0.87183">
        <ele>76</ele>
        <time>2022-07-08T18:06:18+02:00</time>
      </trkpt>
      <trkpt lat="47.04829" lon="-0.87187">
        <ele>76</ele>
        <time>2022-07-08T18:06:18+02:00</time>
      </trkpt>
      <trkpt lat="47.0482" lon="-0.87189">
        <ele>76</ele>
        <time>2022-07-08T18:06:18+02:00</time>
      </trkpt>
      <trkpt lat="47.0481" lon="-0.87188">
        <ele>75</ele>
        <time>2022-07-08T18:06:18+02:00</time>
      </trkpt>
      <trkpt lat="47.04801" lon="-0.87184">
        <ele>74</ele>
        <time>2022-07-08T18:06:18+02:00</time>
      </trkpt>
      <trkpt lat="47.04793" lon="-0.87178">
        <ele>75</ele>
        <time>2022-07-08T18:06:18+02:00</time>
      </trkpt>
      <trkpt lat="47.04788" lon="-0.87165">
        <ele>74</ele>
        <time>2022-07-08T18:06:18+02:00</time>
      </trkpt>
      <trkpt lat="47.04784" lon="-0.87152">
        <ele>74</ele>
        <time>2022-07-08T18:06:18+02:00</time>
      </trkpt>
      <trkpt lat="47.04779" lon="-0.87139">
        <ele>75</ele>
        <time>2022-07-08T18:06:18+02:00</time>
      </trkpt>
      <trkpt lat="47.04774" lon="-0.87126">
        <ele>74</ele>
        <time>2022-07-08T18:06:18+02:00</time>
      </trkpt>
      <trkpt lat="47.04769" lon="-0.87114">
        <ele>74</ele>
        <time>2022-07-08T18:06:18+02:00</time>
      </trkpt>
      <trkpt lat="47.04765" lon="-0.87102">
        <ele>75</ele>
        <time>2022-07-08T18:06:18+02:00</time>
      </trkpt>
      <trkpt lat="47.04762" lon="-0.87089">
        <ele>75</ele>
        <time>2022-07-08T18:06:18+02:00</time>
      </trkpt>
      <trkpt lat="47.04759" lon="-0.87075">
        <ele>75</ele>
        <time>2022-07-08T18:06:18+02:00</time>
      </trkpt>
      <trkpt lat="47.04755" lon="-0.87061">
        <ele>75</ele>
        <time>2022-07-08T18:06:18+02:00</time>
      </trkpt>
      <trkpt lat="47.04748" lon="-0.87049">
        <ele>76</ele>
        <time>2022-07-08T18:06:18+02:00</time>
      </trkpt>
      <trkpt lat="47.04743" lon="-0.87038">
        <ele>76</ele>
        <time>2022-07-08T18:06:18+02:00</time>
      </trkpt>
      <trkpt lat="47.04736" lon="-0.87027">
        <ele>76</ele>
        <time>2022-07-08T18:06:18+02:00</time>
      </trkpt>
      <trkpt lat="47.0473" lon="-0.87015">
        <ele>76</ele>
        <time>2022-07-08T18:06:18+02:00</time>
      </trkpt>
      <trkpt lat="47.04721" lon="-0.87012">
        <ele>77</ele>
        <time>2022-07-08T18:06:18+02:00</time>
      </trkpt>
      <trkpt lat="47.04714" lon="-0.87021">
        <ele>76</ele>
        <time>2022-07-08T18:06:18+02:00</time>
      </trkpt>
      <trkpt lat="47.04706" lon="-0.87028">
        <ele>76</ele>
        <time>2022-07-08T18:06:18+02:00</time>
      </trkpt>
      <trkpt lat="47.04698" lon="-0.87034">
        <ele>72</ele>
        <time>2022-07-08T18:06:18+02:00</time>
      </trkpt>
      <trkpt lat="47.04688" lon="-0.87035">
        <ele>75</ele>
        <time>2022-07-08T18:06:18+02:00</time>
      </trkpt>
      <trkpt lat="47.04679" lon="-0.87032">
        <ele>75</ele>
        <time>2022-07-08T18:06:18+02:00</time>
      </trkpt>
      <trkpt lat="47.04674" lon="-0.87022">
        <ele>75</ele>
        <time>2022-07-08T18:06:18+02:00</time>
      </trkpt>
      <trkpt lat="47.04669" lon="-0.87009">
        <ele>75</ele>
        <time>2022-07-08T18:06:18+02:00</time>
      </trkpt>
      <trkpt lat="47.04665" lon="-0.86996">
        <ele>75</ele>
        <time>2022-07-08T18:06:18+02:00</time>
      </trkpt>
      <trkpt lat="47.04663" lon="-0.86982">
        <ele>74</ele>
        <time>2022-07-08T18:06:18+02:00</time>
      </trkpt>
      <trkpt lat="47.04662" lon="-0.86968">
        <ele>74</ele>
        <time>2022-07-08T18:06:18+02:00</time>
      </trkpt>
      <trkpt lat="47.0466" lon="-0.86953">
        <ele>74</ele>
        <time>2022-07-08T18:06:18+02:00</time>
      </trkpt>
      <trkpt lat="47.04657" lon="-0.8694">
        <ele>74</ele>
        <time>2022-07-08T18:06:18+02:00</time>
      </trkpt>
      <trkpt lat="47.04654" lon="-0.86927">
        <ele>74</ele>
        <time>2022-07-08T18:06:18+02:00</time>
      </trkpt>
      <trkpt lat="47.0465" lon="-0.86913">
        <ele>75</ele>
        <time>2022-07-08T18:06:18+02:00</time>
      </trkpt>
      <trkpt lat="47.04646" lon="-0.86899">
        <ele>75</ele>
        <time>2022-07-08T18:06:18+02:00</time>
      </trkpt>
      <trkpt lat="47.04644" lon="-0.86886">
        <ele>75</ele>
        <time>2022-07-08T18:06:18+02:00</time>
      </trkpt>
      <trkpt lat="47.04643" lon="-0.86872">
        <ele>74</ele>
        <time>2022-07-08T18:06:18+02:00</time>
      </trkpt>
      <trkpt lat="47.04641" lon="-0.86859">
        <ele>75</ele>
        <time>2022-07-08T18:06:18+02:00</time>
      </trkpt>
      <trkpt lat="47.04638" lon="-0.86846">
        <ele>76</ele>
        <time>2022-07-08T18:06:18+02:00</time>
      </trkpt>
      <trkpt lat="47.04634" lon="-0.86832">
        <ele>75</ele>
        <time>2022-07-08T18:06:18+02:00</time>
      </trkpt>
      <trkpt lat="47.0463" lon="-0.8682">
        <ele>76</ele>
        <time>2022-07-08T18:06:18+02:00</time>
      </trkpt>
      <trkpt lat="47.04625" lon="-0.86809">
        <ele>77</ele>
        <time>2022-07-08T18:06:18+02:00</time>
      </trkpt>
      <trkpt lat="47.04621" lon="-0.86796">
        <ele>75</ele>
        <time>2022-07-08T18:06:18+02:00</time>
      </trkpt>
      <trkpt lat="47.04618" lon="-0.86783">
        <ele>76</ele>
        <time>2022-07-08T18:06:18+02:00</time>
      </trkpt>
      <trkpt lat="47.04617" lon="-0.86769">
        <ele>76</ele>
        <time>2022-07-08T18:06:18+02:00</time>
      </trkpt>
      <trkpt lat="47.04624" lon="-0.86761">
        <ele>76</ele>
        <time>2022-07-08T18:06:18+02:00</time>
      </trkpt>
      <trkpt lat="47.04634" lon="-0.86761">
        <ele>76</ele>
        <time>2022-07-08T18:06:18+02:00</time>
      </trkpt>
      <trkpt lat="47.04644" lon="-0.86761">
        <ele>76</ele>
        <time>2022-07-08T18:06:18+02:00</time>
      </trkpt>
      <trkpt lat="47.04652" lon="-0.86757">
        <ele>75</ele>
        <time>2022-07-08T18:06:18+02:00</time>
      </trkpt>
      <trkpt lat="47.0466" lon="-0.8675">
        <ele>76</ele>
        <time>2022-07-08T18:06:18+02:00</time>
      </trkpt>
      <trkpt lat="47.04666" lon="-0.86738">
        <ele>75</ele>
        <time>2022-07-08T18:06:18+02:00</time>
      </trkpt>
      <trkpt lat="47.04668" lon="-0.86725">
        <ele>75</ele>
        <time>2022-07-08T18:06:18+02:00</time>
      </trkpt>
      <trkpt lat="47.04665" lon="-0.86713">
        <ele>75</ele>
        <time>2022-07-08T18:06:18+02:00</time>
      </trkpt>
      <trkpt lat="47.04663" lon="-0.86698">
        <ele>75</ele>
        <time>2022-07-08T18:06:18+02:00</time>
      </trkpt>
      <trkpt lat="47.04663" lon="-0.86684">
        <ele>75</ele>
        <time>2022-07-08T18:06:18+02:00</time>
      </trkpt>
      <trkpt lat="47.04665" lon="-0.86669">
        <ele>76</ele>
        <time>2022-07-08T18:06:18+02:00</time>
      </trkpt>
      <trkpt lat="47.04672" lon="-0.86659">
        <ele>76</ele>
        <time>2022-07-08T18:06:18+02:00</time>
      </trkpt>
      <trkpt lat="47.04681" lon="-0.86653">
        <ele>75</ele>
        <time>2022-07-08T18:06:18+02:00</time>
      </trkpt>
      <trkpt lat="47.0469" lon="-0.86646">
        <ele>75</ele>
        <time>2022-07-08T18:06:18+02:00</time>
      </trkpt>
      <trkpt lat="47.04699" lon="-0.8664">
        <ele>75</ele>
        <time>2022-07-08T18:06:18+02:00</time>
      </trkpt>
      <trkpt lat="47.04708" lon="-0.86633">
        <ele>75</ele>
        <time>2022-07-08T18:06:18+02:00</time>
      </trkpt>
      <trkpt lat="47.04712" lon="-0.86621">
        <ele>76</ele>
        <time>2022-07-08T18:06:18+02:00</time>
      </trkpt>
      <trkpt lat="47.04716" lon="-0.86609">
        <ele>76</ele>
        <time>2022-07-08T18:06:18+02:00</time>
      </trkpt>
      <trkpt lat="47.04721" lon="-0.86597">
        <ele>75</ele>
        <time>2022-07-08T18:06:18+02:00</time>
      </trkpt>
      <trkpt lat="47.04726" lon="-0.86585">
        <ele>75</ele>
        <time>2022-07-08T18:06:18+02:00</time>
      </trkpt>
      <trkpt lat="47.04735" lon="-0.86577">
        <ele>76</ele>
        <time>2022-07-08T18:06:18+02:00</time>
      </trkpt>
      <trkpt lat="47.04742" lon="-0.86569">
        <ele>76</ele>
        <time>2022-07-08T18:06:18+02:00</time>
      </trkpt>
      <trkpt lat="47.04751" lon="-0.86565">
        <ele>75</ele>
        <time>2022-07-08T18:06:18+02:00</time>
      </trkpt>
      <trkpt lat="47.04758" lon="-0.86557">
        <ele>76</ele>
        <time>2022-07-08T18:06:18+02:00</time>
      </trkpt>
      <trkpt lat="47.04767" lon="-0.8655">
        <ele>76</ele>
        <time>2022-07-08T18:06:18+02:00</time>
      </trkpt>
      <trkpt lat="47.04775" lon="-0.86543">
        <ele>76</ele>
        <time>2022-07-08T18:06:18+02:00</time>
      </trkpt>
      <trkpt lat="47.04784" lon="-0.86537">
        <ele>76</ele>
        <time>2022-07-08T18:06:18+02:00</time>
      </trkpt>
      <trkpt lat="47.04793" lon="-0.86531">
        <ele>76</ele>
        <time>2022-07-08T18:06:18+02:00</time>
      </trkpt>
      <trkpt lat="47.04801" lon="-0.86524">
        <ele>76</ele>
        <time>2022-07-08T18:06:18+02:00</time>
      </trkpt>
      <trkpt lat="47.04808" lon="-0.86514">
        <ele>77</ele>
        <time>2022-07-08T18:06:18+02:00</time>
      </trkpt>
      <trkpt lat="47.04816" lon="-0.86507">
        <ele>77</ele>
        <time>2022-07-08T18:06:18+02:00</time>
      </trkpt>
      <trkpt lat="47.04823" lon="-0.86497">
        <ele>78</ele>
        <time>2022-07-08T18:06:18+02:00</time>
      </trkpt>
      <trkpt lat="47.04831" lon="-0.8649">
        <ele>79</ele>
        <time>2022-07-08T18:06:18+02:00</time>
      </trkpt>
      <trkpt lat="47.04838" lon="-0.86481">
        <ele>79</ele>
        <time>2022-07-08T18:06:18+02:00</time>
      </trkpt>
      <trkpt lat="47.04847" lon="-0.86475">
        <ele>79</ele>
        <time>2022-07-08T18:06:18+02:00</time>
      </trkpt>
      <trkpt lat="47.04855" lon="-0.86469">
        <ele>81</ele>
        <time>2022-07-08T18:06:18+02:00</time>
      </trkpt>
      <trkpt lat="47.04863" lon="-0.86462">
        <ele>81</ele>
        <time>2022-07-08T18:06:18+02:00</time>
      </trkpt>
      <trkpt lat="47.04871" lon="-0.86454">
        <ele>82</ele>
        <time>2022-07-08T18:06:18+02:00</time>
      </trkpt>
      <trkpt lat="47.04871" lon="-0.86439">
        <ele>82</ele>
        <time>2022-07-08T18:06:18+02:00</time>
      </trkpt>
      <trkpt lat="47.04866" lon="-0.86428">
        <ele>82</ele>
        <time>2022-07-08T18:06:18+02:00</time>
      </trkpt>
      <trkpt lat="47.04861" lon="-0.86414">
        <ele>83</ele>
        <time>2022-07-08T18:06:18+02:00</time>
      </trkpt>
      <trkpt lat="47.04856" lon="-0.86401">
        <ele>83</ele>
        <time>2022-07-08T18:06:18+02:00</time>
      </trkpt>
      <trkpt lat="47.04854" lon="-0.86388">
        <ele>83</ele>
        <time>2022-07-08T18:06:18+02:00</time>
      </trkpt>
      <trkpt lat="47.04848" lon="-0.86377">
        <ele>84</ele>
        <time>2022-07-08T18:06:18+02:00</time>
      </trkpt>
      <trkpt lat="47.04845" lon="-0.86363">
        <ele>85</ele>
        <time>2022-07-08T18:06:18+02:00</time>
      </trkpt>
      <trkpt lat="47.04841" lon="-0.86349">
        <ele>85</ele>
        <time>2022-07-08T18:06:18+02:00</time>
      </trkpt>
      <trkpt lat="47.04838" lon="-0.86337">
        <ele>85</ele>
        <time>2022-07-08T18:06:18+02:00</time>
      </trkpt>
      <trkpt lat="47.04834" lon="-0.86324">
        <ele>86</ele>
        <time>2022-07-08T18:06:18+02:00</time>
      </trkpt>
      <trkpt lat="47.0483" lon="-0.86312">
        <ele>86</ele>
        <time>2022-07-08T18:06:18+02:00</time>
      </trkpt>
      <trkpt lat="47.04825" lon="-0.863">
        <ele>87</ele>
        <time>2022-07-08T18:06:18+02:00</time>
      </trkpt>
      <trkpt lat="47.04818" lon="-0.86289">
        <ele>88</ele>
        <time>2022-07-08T18:06:18+02:00</time>
      </trkpt>
      <trkpt lat="47.04811" lon="-0.86278">
        <ele>88</ele>
        <time>2022-07-08T18:06:18+02:00</time>
      </trkpt>
      <trkpt lat="47.04805" lon="-0.86268">
        <ele>88</ele>
        <time>2022-07-08T18:06:18+02:00</time>
      </trkpt>
      <trkpt lat="47.04798" lon="-0.86257">
        <ele>88</ele>
        <time>2022-07-08T18:06:18+02:00</time>
      </trkpt>
      <trkpt lat="47.04791" lon="-0.86246">
        <ele>88</ele>
        <time>2022-07-08T18:06:18+02:00</time>
      </trkpt>
      <trkpt lat="47.04784" lon="-0.86237">
        <ele>89</ele>
        <time>2022-07-08T18:06:18+02:00</time>
      </trkpt>
      <trkpt lat="47.04777" lon="-0.86227">
        <ele>89</ele>
        <time>2022-07-08T18:06:18+02:00</time>
      </trkpt>
      <trkpt lat="47.04772" lon="-0.86215">
        <ele>89</ele>
        <time>2022-07-08T18:06:18+02:00</time>
      </trkpt>
      <trkpt lat="47.04767" lon="-0.86204">
        <ele>90</ele>
        <time>2022-07-08T18:06:18+02:00</time>
      </trkpt>
      <trkpt lat="47.04763" lon="-0.86192">
        <ele>90</ele>
        <time>2022-07-08T18:06:18+02:00</time>
      </trkpt>
      <trkpt lat="47.04757" lon="-0.86179">
        <ele>91</ele>
        <time>2022-07-08T18:06:18+02:00</time>
      </trkpt>
      <trkpt lat="47.04753" lon="-0.86167">
        <ele>92</ele>
        <time>2022-07-08T18:06:18+02:00</time>
      </trkpt>
      <trkpt lat="47.0475" lon="-0.86153">
        <ele>91</ele>
        <time>2022-07-08T18:06:18+02:00</time>
      </trkpt>
      <trkpt lat="47.04747" lon="-0.8614">
        <ele>91</ele>
        <time>2022-07-08T18:06:18+02:00</time>
      </trkpt>
      <trkpt lat="47.04738" lon="-0.86136">
        <ele>90</ele>
        <time>2022-07-08T18:06:18+02:00</time>
      </trkpt>
      <trkpt lat="47.04729" lon="-0.86134">
        <ele>89</ele>
        <time>2022-07-08T18:06:18+02:00</time>
      </trkpt>
      <trkpt lat="47.0472" lon="-0.86134">
        <ele>88</ele>
        <time>2022-07-08T18:06:18+02:00</time>
      </trkpt>
      <trkpt lat="47.04713" lon="-0.86143">
        <ele>88</ele>
        <time>2022-07-08T18:06:18+02:00</time>
      </trkpt>
      <trkpt lat="47.04704" lon="-0.86142">
        <ele>88</ele>
        <time>2022-07-08T18:06:18+02:00</time>
      </trkpt>
      <trkpt lat="47.04694" lon="-0.86141">
        <ele>87</ele>
        <time>2022-07-08T18:06:18+02:00</time>
      </trkpt>
      <trkpt lat="47.04685" lon="-0.86138">
        <ele>88</ele>
        <time>2022-07-08T18:06:18+02:00</time>
      </trkpt>
      <trkpt lat="47.04675" lon="-0.86137">
        <ele>89</ele>
        <time>2022-07-08T18:06:18+02:00</time>
      </trkpt>
      <trkpt lat="47.04666" lon="-0.86133">
        <ele>88</ele>
        <time>2022-07-08T18:06:18+02:00</time>
      </trkpt>
      <trkpt lat="47.04656" lon="-0.8613">
        <ele>88</ele>
        <time>2022-07-08T18:06:18+02:00</time>
      </trkpt>
      <trkpt lat="47.04647" lon="-0.86126">
        <ele>88</ele>
        <time>2022-07-08T18:06:18+02:00</time>
      </trkpt>
      <trkpt lat="47.04637" lon="-0.86123">
        <ele>87</ele>
        <time>2022-07-08T18:06:18+02:00</time>
      </trkpt>
      <trkpt lat="47.04628" lon="-0.8612">
        <ele>88</ele>
        <time>2022-07-08T18:06:18+02:00</time>
      </trkpt>
      <trkpt lat="47.04619" lon="-0.86116">
        <ele>88</ele>
        <time>2022-07-08T18:06:18+02:00</time>
      </trkpt>
      <trkpt lat="47.0461" lon="-0.86112">
        <ele>88</ele>
        <time>2022-07-08T18:06:18+02:00</time>
      </trkpt>
      <trkpt lat="47.04601" lon="-0.86106">
        <ele>88</ele>
        <time>2022-07-08T18:06:18+02:00</time>
      </trkpt>
      <trkpt lat="47.04592" lon="-0.86098">
        <ele>87</ele>
        <time>2022-07-08T18:06:18+02:00</time>
      </trkpt>
      <trkpt lat="47.04585" lon="-0.86089">
        <ele>87</ele>
        <time>2022-07-08T18:06:18+02:00</time>
      </trkpt>
      <trkpt lat="47.04577" lon="-0.86081">
        <ele>87</ele>
        <time>2022-07-08T18:06:18+02:00</time>
      </trkpt>
      <trkpt lat="47.0457" lon="-0.86072">
        <ele>86</ele>
        <time>2022-07-08T18:06:18+02:00</time>
      </trkpt>
      <trkpt lat="47.04563" lon="-0.86062">
        <ele>86</ele>
        <time>2022-07-08T18:06:18+02:00</time>
      </trkpt>
      <trkpt lat="47.04556" lon="-0.86051">
        <ele>86</ele>
        <time>2022-07-08T18:06:18+02:00</time>
      </trkpt>
      <trkpt lat="47.04548" lon="-0.86043">
        <ele>86</ele>
        <time>2022-07-08T18:06:18+02:00</time>
      </trkpt>
      <trkpt lat="47.04541" lon="-0.86034">
        <ele>86</ele>
        <time>2022-07-08T18:06:18+02:00</time>
      </trkpt>
      <trkpt lat="47.04534" lon="-0.86026">
        <ele>86</ele>
        <time>2022-07-08T18:06:18+02:00</time>
      </trkpt>
      <trkpt lat="47.04527" lon="-0.86017">
        <ele>87</ele>
        <time>2022-07-08T18:06:18+02:00</time>
      </trkpt>
      <trkpt lat="47.0452" lon="-0.86008">
        <ele>87</ele>
        <time>2022-07-08T18:06:18+02:00</time>
      </trkpt>
      <trkpt lat="47.0452" lon="-0.85993">
        <ele>88</ele>
        <time>2022-07-08T18:06:18+02:00</time>
      </trkpt>
      <trkpt lat="47.04513" lon="-0.85984">
        <ele>90</ele>
        <time>2022-07-08T18:06:18+02:00</time>
      </trkpt>
      <trkpt lat="47.04504" lon="-0.85983">
        <ele>88</ele>
        <time>2022-07-08T18:06:18+02:00</time>
      </trkpt>
      <trkpt lat="47.04494" lon="-0.85982">
        <ele>87</ele>
        <time>2022-07-08T18:06:18+02:00</time>
      </trkpt>
      <trkpt lat="47.04484" lon="-0.8598">
        <ele>88</ele>
        <time>2022-07-08T18:06:18+02:00</time>
      </trkpt>
      <trkpt lat="47.04475" lon="-0.85979">
        <ele>88</ele>
        <time>2022-07-08T18:06:18+02:00</time>
      </trkpt>
      <trkpt lat="47.04466" lon="-0.85976">
        <ele>88</ele>
        <time>2022-07-08T18:06:18+02:00</time>
      </trkpt>
      <trkpt lat="47.04456" lon="-0.85971">
        <ele>89</ele>
        <time>2022-07-08T18:06:18+02:00</time>
      </trkpt>
      <trkpt lat="47.04447" lon="-0.85968">
        <ele>90</ele>
        <time>2022-07-08T18:06:18+02:00</time>
      </trkpt>
      <trkpt lat="47.04438" lon="-0.85964">
        <ele>91</ele>
        <time>2022-07-08T18:06:18+02:00</time>
      </trkpt>
      <trkpt lat="47.04429" lon="-0.8596">
        <ele>91</ele>
        <time>2022-07-08T18:06:18+02:00</time>
      </trkpt>
      <trkpt lat="47.0442" lon="-0.85956">
        <ele>92</ele>
        <time>2022-07-08T18:06:18+02:00</time>
      </trkpt>
      <trkpt lat="47.04411" lon="-0.85949">
        <ele>92</ele>
        <time>2022-07-08T18:06:18+02:00</time>
      </trkpt>
      <trkpt lat="47.04411" lon="-0.85936">
        <ele>94</ele>
        <time>2022-07-08T18:06:18+02:00</time>
      </trkpt>
      <trkpt lat="47.04413" lon="-0.85922">
        <ele>95</ele>
        <time>2022-07-08T18:06:18+02:00</time>
      </trkpt>
      <trkpt lat="47.04415" lon="-0.85909">
        <ele>96</ele>
        <time>2022-07-08T18:06:18+02:00</time>
      </trkpt>
      <trkpt lat="47.04413" lon="-0.85896">
        <ele>96</ele>
        <time>2022-07-08T18:06:18+02:00</time>
      </trkpt>
      <trkpt lat="47.04405" lon="-0.85888">
        <ele>96</ele>
        <time>2022-07-08T18:06:18+02:00</time>
      </trkpt>
      <trkpt lat="47.04401" lon="-0.85876">
        <ele>97</ele>
        <time>2022-07-08T18:06:18+02:00</time>
      </trkpt>
      <trkpt lat="47.04405" lon="-0.85863">
        <ele>98</ele>
        <time>2022-07-08T18:06:18+02:00</time>
      </trkpt>
      <trkpt lat="47.04407" lon="-0.85848">
        <ele>98</ele>
        <time>2022-07-08T18:06:18+02:00</time>
      </trkpt>
      <trkpt lat="47.04409" lon="-0.85836">
        <ele>99</ele>
        <time>2022-07-08T18:06:18+02:00</time>
      </trkpt>
      <trkpt lat="47.04411" lon="-0.85822">
        <ele>99</ele>
        <time>2022-07-08T18:06:18+02:00</time>
      </trkpt>
      <trkpt lat="47.04413" lon="-0.85807">
        <ele>99</ele>
        <time>2022-07-08T18:06:18+02:00</time>
      </trkpt>
      <trkpt lat="47.04417" lon="-0.85795">
        <ele>98</ele>
        <time>2022-07-08T18:06:18+02:00</time>
      </trkpt>
      <trkpt lat="47.04423" lon="-0.85785">
        <ele>100</ele>
        <time>2022-07-08T18:06:18+02:00</time>
      </trkpt>
      <trkpt lat="47.04429" lon="-0.85774">
        <ele>101</ele>
        <time>2022-07-08T18:06:18+02:00</time>
      </trkpt>
      <trkpt lat="47.04435" lon="-0.85763">
        <ele>101</ele>
        <time>2022-07-08T18:06:18+02:00</time>
      </trkpt>
      <trkpt lat="47.04442" lon="-0.85753">
        <ele>101</ele>
        <time>2022-07-08T18:06:18+02:00</time>
      </trkpt>
      <trkpt lat="47.04449" lon="-0.85743">
        <ele>100</ele>
        <time>2022-07-08T18:06:18+02:00</time>
      </trkpt>
      <trkpt lat="47.04456" lon="-0.85733">
        <ele>101</ele>
        <time>2022-07-08T18:06:18+02:00</time>
      </trkpt>
      <trkpt lat="47.04463" lon="-0.85723">
        <ele>101</ele>
        <time>2022-07-08T18:06:18+02:00</time>
      </trkpt>
      <trkpt lat="47.04468" lon="-0.85712">
        <ele>101</ele>
        <time>2022-07-08T18:06:18+02:00</time>
      </trkpt>
      <trkpt lat="47.04465" lon="-0.85698">
        <ele>101</ele>
        <time>2022-07-08T18:06:18+02:00</time>
      </trkpt>
      <trkpt lat="47.04458" lon="-0.85689">
        <ele>101</ele>
        <time>2022-07-08T18:06:18+02:00</time>
      </trkpt>
      <trkpt lat="47.04448" lon="-0.85688">
        <ele>101</ele>
        <time>2022-07-08T18:06:18+02:00</time>
      </trkpt>
      <trkpt lat="47.0444" lon="-0.85697">
        <ele>102</ele>
        <time>2022-07-08T18:06:18+02:00</time>
      </trkpt>
      <trkpt lat="47.04435" lon="-0.85709">
        <ele>102</ele>
        <time>2022-07-08T18:06:18+02:00</time>
      </trkpt>
      <trkpt lat="47.04432" lon="-0.85722">
        <ele>103</ele>
        <time>2022-07-08T18:06:18+02:00</time>
      </trkpt>
      <trkpt lat="47.04425" lon="-0.85731">
        <ele>103</ele>
        <time>2022-07-08T18:06:18+02:00</time>
      </trkpt>
      <trkpt lat="47.04416" lon="-0.85725">
        <ele>102</ele>
        <time>2022-07-08T18:06:18+02:00</time>
      </trkpt>
      <trkpt lat="47.04413" lon="-0.85712">
        <ele>103</ele>
        <time>2022-07-08T18:06:18+02:00</time>
      </trkpt>
      <trkpt lat="47.04417" lon="-0.85698">
        <ele>104</ele>
        <time>2022-07-08T18:06:18+02:00</time>
      </trkpt>
      <trkpt lat="47.04422" lon="-0.85687">
        <ele>104</ele>
        <time>2022-07-08T18:06:18+02:00</time>
      </trkpt>
      <trkpt lat="47.04428" lon="-0.85676">
        <ele>105</ele>
        <time>2022-07-08T18:06:18+02:00</time>
      </trkpt>
      <trkpt lat="47.04434" lon="-0.85665">
        <ele>104</ele>
        <time>2022-07-08T18:06:18+02:00</time>
      </trkpt>
      <trkpt lat="47.0444" lon="-0.85655">
        <ele>105</ele>
        <time>2022-07-08T18:06:18+02:00</time>
      </trkpt>
      <trkpt lat="47.04448" lon="-0.85647">
        <ele>105</ele>
        <time>2022-07-08T18:06:18+02:00</time>
      </trkpt>
      <trkpt lat="47.04457" lon="-0.8564">
        <ele>104</ele>
        <time>2022-07-08T18:06:18+02:00</time>
      </trkpt>
      <trkpt lat="47.04458" lon="-0.85626">
        <ele>104</ele>
        <time>2022-07-08T18:06:18+02:00</time>
      </trkpt>
      <trkpt lat="47.0445" lon="-0.85619">
        <ele>104</ele>
        <time>2022-07-08T18:06:18+02:00</time>
      </trkpt>
      <trkpt lat="47.04442" lon="-0.85629">
        <ele>103</ele>
        <time>2022-07-08T18:06:18+02:00</time>
      </trkpt>
      <trkpt lat="47.04433" lon="-0.85627">
        <ele>103</ele>
        <time>2022-07-08T18:06:18+02:00</time>
      </trkpt>
      <trkpt lat="47.04426" lon="-0.85617">
        <ele>103</ele>
        <time>2022-07-08T18:06:18+02:00</time>
      </trkpt>
      <trkpt lat="47.04424" lon="-0.85603">
        <ele>104</ele>
        <time>2022-07-08T18:06:18+02:00</time>
      </trkpt>
      <trkpt lat="47.04422" lon="-0.85589">
        <ele>104</ele>
        <time>2022-07-08T18:06:18+02:00</time>
      </trkpt>
      <trkpt lat="47.04425" lon="-0.85575">
        <ele>104</ele>
        <time>2022-07-08T18:06:18+02:00</time>
      </trkpt>
      <trkpt lat="47.0443" lon="-0.85563">
        <ele>105</ele>
        <time>2022-07-08T18:06:18+02:00</time>
      </trkpt>
      <trkpt lat="47.04434" lon="-0.8555">
        <ele>104</ele>
        <time>2022-07-08T18:06:18+02:00</time>
      </trkpt>
      <trkpt lat="47.04438" lon="-0.85537">
        <ele>105</ele>
        <time>2022-07-08T18:06:18+02:00</time>
      </trkpt>
      <trkpt lat="47.04442" lon="-0.85526">
        <ele>105</ele>
        <time>2022-07-08T18:06:18+02:00</time>
      </trkpt>
      <trkpt lat="47.04446" lon="-0.85513">
        <ele>105</ele>
        <time>2022-07-08T18:06:18+02:00</time>
      </trkpt>
      <trkpt lat="47.04451" lon="-0.855">
        <ele>105</ele>
        <time>2022-07-08T18:06:18+02:00</time>
      </trkpt>
      <trkpt lat="47.04456" lon="-0.85489">
        <ele>105</ele>
        <time>2022-07-08T18:06:18+02:00</time>
      </trkpt>
      <trkpt lat="47.04463" lon="-0.8548">
        <ele>106</ele>
        <time>2022-07-08T18:06:18+02:00</time>
      </trkpt>
      <trkpt lat="47.0447" lon="-0.85471">
        <ele>106</ele>
        <time>2022-07-08T18:06:18+02:00</time>
      </trkpt>
      <trkpt lat="47.04478" lon="-0.85463">
        <ele>106</ele>
        <time>2022-07-08T18:06:18+02:00</time>
      </trkpt>
      <trkpt lat="47.04481" lon="-0.8545">
        <ele>105</ele>
        <time>2022-07-08T18:06:18+02:00</time>
      </trkpt>
      <trkpt lat="47.0448" lon="-0.85435">
        <ele>105</ele>
        <time>2022-07-08T18:06:18+02:00</time>
      </trkpt>
      <trkpt lat="47.04477" lon="-0.8542">
        <ele>105</ele>
        <time>2022-07-08T18:06:18+02:00</time>
      </trkpt>
      <trkpt lat="47.04473" lon="-0.85409">
        <ele>105</ele>
        <time>2022-07-08T18:06:18+02:00</time>
      </trkpt>
      <trkpt lat="47.04466" lon="-0.85399">
        <ele>106</ele>
        <time>2022-07-08T18:06:18+02:00</time>
      </trkpt>
      <trkpt lat="47.04458" lon="-0.8539">
        <ele>106</ele>
        <time>2022-07-08T18:06:18+02:00</time>
      </trkpt>
      <trkpt lat="47.04449" lon="-0.85387">
        <ele>106</ele>
        <time>2022-07-08T18:06:18+02:00</time>
      </trkpt>
      <trkpt lat="47.0444" lon="-0.85387">
        <ele>106</ele>
        <time>2022-07-08T18:06:18+02:00</time>
      </trkpt>
      <trkpt lat="47.04431" lon="-0.85386">
        <ele>106</ele>
        <time>2022-07-08T18:06:18+02:00</time>
      </trkpt>
      <trkpt lat="47.04426" lon="-0.85374">
        <ele>107</ele>
        <time>2022-07-08T18:06:18+02:00</time>
      </trkpt>
      <trkpt lat="47.0443" lon="-0.85362">
        <ele>109</ele>
        <time>2022-07-08T18:06:18+02:00</time>
      </trkpt>
      <trkpt lat="47.04434" lon="-0.85349">
        <ele>109</ele>
        <time>2022-07-08T18:06:18+02:00</time>
      </trkpt>
      <trkpt lat="47.04437" lon="-0.85336">
        <ele>110</ele>
        <time>2022-07-08T18:06:18+02:00</time>
      </trkpt>
      <trkpt lat="47.0444" lon="-0.85323">
        <ele>111</ele>
        <time>2022-07-08T18:06:18+02:00</time>
      </trkpt>
      <trkpt lat="47.04434" lon="-0.85311">
        <ele>110</ele>
        <time>2022-07-08T18:06:18+02:00</time>
      </trkpt>
      <trkpt lat="47.04426" lon="-0.85302">
        <ele>110</ele>
        <time>2022-07-08T18:06:18+02:00</time>
      </trkpt>
      <trkpt lat="47.0442" lon="-0.85292">
        <ele>110</ele>
        <time>2022-07-08T18:06:18+02:00</time>
      </trkpt>
      <trkpt lat="47.04414" lon="-0.85281">
        <ele>110</ele>
        <time>2022-07-08T18:06:18+02:00</time>
      </trkpt>
      <trkpt lat="47.04408" lon="-0.85271">
        <ele>110</ele>
        <time>2022-07-08T18:06:18+02:00</time>
      </trkpt>
      <trkpt lat="47.04402" lon="-0.8526">
        <ele>111</ele>
        <time>2022-07-08T18:06:18+02:00</time>
      </trkpt>
      <trkpt lat="47.04398" lon="-0.85247">
        <ele>110</ele>
        <time>2022-07-08T18:06:18+02:00</time>
      </trkpt>
      <trkpt lat="47.04393" lon="-0.85235">
        <ele>110</ele>
        <time>2022-07-08T18:06:18+02:00</time>
      </trkpt>
      <trkpt lat="47.04389" lon="-0.85222">
        <ele>111</ele>
        <time>2022-07-08T18:06:18+02:00</time>
      </trkpt>
      <trkpt lat="47.04384" lon="-0.85209">
        <ele>109</ele>
        <time>2022-07-08T18:06:18+02:00</time>
      </trkpt>
      <trkpt lat="47.04379" lon="-0.85197">
        <ele>109</ele>
        <time>2022-07-08T18:06:18+02:00</time>
      </trkpt>
      <trkpt lat="47.04376" lon="-0.85183">
        <ele>110</ele>
        <time>2022-07-08T18:06:18+02:00</time>
      </trkpt>
      <trkpt lat="47.04376" lon="-0.8517">
        <ele>110</ele>
        <time>2022-07-08T18:06:18+02:00</time>
      </trkpt>
      <trkpt lat="47.04377" lon="-0.85155">
        <ele>111</ele>
        <time>2022-07-08T18:06:18+02:00</time>
      </trkpt>
      <trkpt lat="47.04377" lon="-0.85141">
        <ele>111</ele>
        <time>2022-07-08T18:06:18+02:00</time>
      </trkpt>
      <trkpt lat="47.04378" lon="-0.85126">
        <ele>112</ele>
        <time>2022-07-08T18:06:18+02:00</time>
      </trkpt>
      <trkpt lat="47.04379" lon="-0.85111">
        <ele>112</ele>
        <time>2022-07-08T18:06:18+02:00</time>
      </trkpt>
      <trkpt lat="47.0438" lon="-0.85098">
        <ele>112</ele>
        <time>2022-07-08T18:06:18+02:00</time>
      </trkpt>
      <trkpt lat="47.04382" lon="-0.85084">
        <ele>112</ele>
        <time>2022-07-08T18:06:18+02:00</time>
      </trkpt>
      <trkpt lat="47.04383" lon="-0.8507">
        <ele>113</ele>
        <time>2022-07-08T18:06:18+02:00</time>
      </trkpt>
      <trkpt lat="47.04382" lon="-0.85055">
        <ele>113</ele>
        <time>2022-07-08T18:06:18+02:00</time>
      </trkpt>
      <trkpt lat="47.04373" lon="-0.85053">
        <ele>113</ele>
        <time>2022-07-08T18:06:18+02:00</time>
      </trkpt>
      <trkpt lat="47.04364" lon="-0.85057">
        <ele>113</ele>
        <time>2022-07-08T18:06:18+02:00</time>
      </trkpt>
      <trkpt lat="47.04354" lon="-0.8506">
        <ele>113</ele>
        <time>2022-07-08T18:06:18+02:00</time>
      </trkpt>
      <trkpt lat="47.04345" lon="-0.85059">
        <ele>113</ele>
        <time>2022-07-08T18:06:18+02:00</time>
      </trkpt>
      <trkpt lat="47.04334" lon="-0.85058">
        <ele>112</ele>
        <time>2022-07-08T18:06:18+02:00</time>
      </trkpt>
      <trkpt lat="47.04325" lon="-0.85058">
        <ele>112</ele>
        <time>2022-07-08T18:06:18+02:00</time>
      </trkpt>
      <trkpt lat="47.04316" lon="-0.85059">
        <ele>112</ele>
        <time>2022-07-08T18:06:18+02:00</time>
      </trkpt>
      <trkpt lat="47.04306" lon="-0.85055">
        <ele>114</ele>
        <time>2022-07-08T18:06:18+02:00</time>
      </trkpt>
      <trkpt lat="47.04298" lon="-0.85047">
        <ele>114</ele>
        <time>2022-07-08T18:06:18+02:00</time>
      </trkpt>
      <trkpt lat="47.04291" lon="-0.85038">
        <ele>114</ele>
        <time>2022-07-08T18:06:18+02:00</time>
      </trkpt>
      <trkpt lat="47.04284" lon="-0.85028">
        <ele>114</ele>
        <time>2022-07-08T18:06:18+02:00</time>
      </trkpt>
      <trkpt lat="47.04277" lon="-0.85019">
        <ele>115</ele>
        <time>2022-07-08T18:06:18+02:00</time>
      </trkpt>
      <trkpt lat="47.04271" lon="-0.85009">
        <ele>115</ele>
        <time>2022-07-08T18:06:18+02:00</time>
      </trkpt>
      <trkpt lat="47.04265" lon="-0.84998">
        <ele>115</ele>
        <time>2022-07-08T18:06:18+02:00</time>
      </trkpt>
      <trkpt lat="47.04259" lon="-0.84986">
        <ele>116</ele>
        <time>2022-07-08T18:06:18+02:00</time>
      </trkpt>
      <trkpt lat="47.04252" lon="-0.84974">
        <ele>116</ele>
        <time>2022-07-08T18:06:18+02:00</time>
      </trkpt>
      <trkpt lat="47.04245" lon="-0.84963">
        <ele>116</ele>
        <time>2022-07-08T18:06:18+02:00</time>
      </trkpt>
      <trkpt lat="47.04239" lon="-0.84952">
        <ele>116</ele>
        <time>2022-07-08T18:06:18+02:00</time>
      </trkpt>
      <trkpt lat="47.04234" lon="-0.8494">
        <ele>116</ele>
        <time>2022-07-08T18:06:18+02:00</time>
      </trkpt>
      <trkpt lat="47.04228" lon="-0.84928">
        <ele>116</ele>
        <time>2022-07-08T18:06:18+02:00</time>
      </trkpt>
      <trkpt lat="47.04222" lon="-0.84917">
        <ele>116</ele>
        <time>2022-07-08T18:06:18+02:00</time>
      </trkpt>
      <trkpt lat="47.04213" lon="-0.84923">
        <ele>116</ele>
        <time>2022-07-08T18:06:18+02:00</time>
      </trkpt>
      <trkpt lat="47.04205" lon="-0.8493">
        <ele>117</ele>
        <time>2022-07-08T18:06:18+02:00</time>
      </trkpt>
      <trkpt lat="47.04195" lon="-0.84932">
        <ele>115</ele>
        <time>2022-07-08T18:06:18+02:00</time>
      </trkpt>
      <trkpt lat="47.04187" lon="-0.84936">
        <ele>116</ele>
        <time>2022-07-08T18:06:18+02:00</time>
      </trkpt>
      <trkpt lat="47.04178" lon="-0.84941">
        <ele>117</ele>
        <time>2022-07-08T18:06:18+02:00</time>
      </trkpt>
      <trkpt lat="47.04168" lon="-0.84944">
        <ele>115</ele>
        <time>2022-07-08T18:06:18+02:00</time>
      </trkpt>
      <trkpt lat="47.04159" lon="-0.84946">
        <ele>115</ele>
        <time>2022-07-08T18:06:18+02:00</time>
      </trkpt>
      <trkpt lat="47.04149" lon="-0.8495">
        <ele>115</ele>
        <time>2022-07-08T18:06:18+02:00</time>
      </trkpt>
      <trkpt lat="47.0414" lon="-0.84954">
        <ele>116</ele>
        <time>2022-07-08T18:06:18+02:00</time>
      </trkpt>
      <trkpt lat="47.04131" lon="-0.84958">
        <ele>114</ele>
        <time>2022-07-08T18:06:18+02:00</time>
      </trkpt>
      <trkpt lat="47.04122" lon="-0.84962">
        <ele>114</ele>
        <time>2022-07-08T18:06:18+02:00</time>
      </trkpt>
      <trkpt lat="47.04114" lon="-0.84969">
        <ele>114</ele>
        <time>2022-07-08T18:06:18+02:00</time>
      </trkpt>
      <trkpt lat="47.04104" lon="-0.84975">
        <ele>114</ele>
        <time>2022-07-08T18:06:18+02:00</time>
      </trkpt>
      <trkpt lat="47.04096" lon="-0.84981">
        <ele>113</ele>
        <time>2022-07-08T18:06:18+02:00</time>
      </trkpt>
      <trkpt lat="47.04087" lon="-0.84984">
        <ele>113</ele>
        <time>2022-07-08T18:06:18+02:00</time>
      </trkpt>
      <trkpt lat="47.04077" lon="-0.84988">
        <ele>112</ele>
        <time>2022-07-08T18:06:18+02:00</time>
      </trkpt>
      <trkpt lat="47.04067" lon="-0.84988">
        <ele>113</ele>
        <time>2022-07-08T18:06:18+02:00</time>
      </trkpt>
      <trkpt lat="47.04058" lon="-0.84987">
        <ele>113</ele>
        <time>2022-07-08T18:06:18+02:00</time>
      </trkpt>
      <trkpt lat="47.04048" lon="-0.84987">
        <ele>114</ele>
        <time>2022-07-08T18:06:18+02:00</time>
      </trkpt>
      <trkpt lat="47.04039" lon="-0.84982">
        <ele>113</ele>
        <time>2022-07-08T18:06:18+02:00</time>
      </trkpt>
      <trkpt lat="47.04029" lon="-0.84977">
        <ele>112</ele>
        <time>2022-07-08T18:06:18+02:00</time>
      </trkpt>
      <trkpt lat="47.0402" lon="-0.84972">
        <ele>113</ele>
        <time>2022-07-08T18:06:18+02:00</time>
      </trkpt>
      <trkpt lat="47.0401" lon="-0.84971">
        <ele>111</ele>
        <time>2022-07-08T18:06:18+02:00</time>
      </trkpt>
      <trkpt lat="47.04001" lon="-0.84967">
        <ele>110</ele>
        <time>2022-07-08T18:06:18+02:00</time>
      </trkpt>
      <trkpt lat="47.03993" lon="-0.84962">
        <ele>110</ele>
        <time>2022-07-08T18:06:18+02:00</time>
      </trkpt>
      <trkpt lat="47.03982" lon="-0.84959">
        <ele>109</ele>
        <time>2022-07-08T18:06:18+02:00</time>
      </trkpt>
      <trkpt lat="47.03975" lon="-0.84949">
        <ele>110</ele>
        <time>2022-07-08T18:06:18+02:00</time>
      </trkpt>
      <trkpt lat="47.03968" lon="-0.84939">
        <ele>110</ele>
        <time>2022-07-08T18:06:18+02:00</time>
      </trkpt>
      <trkpt lat="47.03962" lon="-0.84928">
        <ele>111</ele>
        <time>2022-07-08T18:06:18+02:00</time>
      </trkpt>
      <trkpt lat="47.03956" lon="-0.84918">
        <ele>111</ele>
        <time>2022-07-08T18:06:18+02:00</time>
      </trkpt>
      <trkpt lat="47.03949" lon="-0.84908">
        <ele>110</ele>
        <time>2022-07-08T18:06:18+02:00</time>
      </trkpt>
      <trkpt lat="47.03942" lon="-0.849">
        <ele>110</ele>
        <time>2022-07-08T18:06:18+02:00</time>
      </trkpt>
      <trkpt lat="47.03936" lon="-0.84889">
        <ele>110</ele>
        <time>2022-07-08T18:06:18+02:00</time>
      </trkpt>
      <trkpt lat="47.03928" lon="-0.8488">
        <ele>111</ele>
        <time>2022-07-08T18:06:18+02:00</time>
      </trkpt>
      <trkpt lat="47.03921" lon="-0.8487">
        <ele>110</ele>
        <time>2022-07-08T18:06:18+02:00</time>
      </trkpt>
      <trkpt lat="47.03913" lon="-0.84861">
        <ele>111</ele>
        <time>2022-07-08T18:06:18+02:00</time>
      </trkpt>
      <trkpt lat="47.03905" lon="-0.84851">
        <ele>111</ele>
        <time>2022-07-08T18:06:18+02:00</time>
      </trkpt>
      <trkpt lat="47.03898" lon="-0.84842">
        <ele>110</ele>
        <time>2022-07-08T18:06:18+02:00</time>
      </trkpt>
      <trkpt lat="47.03891" lon="-0.84834">
        <ele>110</ele>
        <time>2022-07-08T18:06:18+02:00</time>
      </trkpt>
      <trkpt lat="47.03884" lon="-0.84823">
        <ele>110</ele>
        <time>2022-07-08T18:06:18+02:00</time>
      </trkpt>
      <trkpt lat="47.03876" lon="-0.84812">
        <ele>110</ele>
        <time>2022-07-08T18:06:18+02:00</time>
      </trkpt>
      <trkpt lat="47.03871" lon="-0.848">
        <ele>110</ele>
        <time>2022-07-08T18:06:18+02:00</time>
      </trkpt>
      <trkpt lat="47.03865" lon="-0.84789">
        <ele>111</ele>
        <time>2022-07-08T18:06:18+02:00</time>
      </trkpt>
      <trkpt lat="47.03859" lon="-0.84778">
        <ele>111</ele>
        <time>2022-07-08T18:06:18+02:00</time>
      </trkpt>
      <trkpt lat="47.03853" lon="-0.84766">
        <ele>111</ele>
        <time>2022-07-08T18:06:18+02:00</time>
      </trkpt>
      <trkpt lat="47.03848" lon="-0.84754">
        <ele>112</ele>
        <time>2022-07-08T18:06:18+02:00</time>
      </trkpt>
      <trkpt lat="47.03842" lon="-0.84743">
        <ele>112</ele>
        <time>2022-07-08T18:06:18+02:00</time>
      </trkpt>
      <trkpt lat="47.03841" lon="-0.8473">
        <ele>112</ele>
        <time>2022-07-08T18:06:18+02:00</time>
      </trkpt>
      <trkpt lat="47.03847" lon="-0.84717">
        <ele>112</ele>
        <time>2022-07-08T18:06:18+02:00</time>
      </trkpt>
      <trkpt lat="47.03854" lon="-0.84708">
        <ele>112</ele>
        <time>2022-07-08T18:06:18+02:00</time>
      </trkpt>
      <trkpt lat="47.03861" lon="-0.84698">
        <ele>113</ele>
        <time>2022-07-08T18:06:18+02:00</time>
      </trkpt>
      <trkpt lat="47.03868" lon="-0.84689">
        <ele>114</ele>
        <time>2022-07-08T18:06:18+02:00</time>
      </trkpt>
      <trkpt lat="47.03875" lon="-0.84679">
        <ele>113</ele>
        <time>2022-07-08T18:06:18+02:00</time>
      </trkpt>
      <trkpt lat="47.0388" lon="-0.84668">
        <ele>113</ele>
        <time>2022-07-08T18:06:18+02:00</time>
      </trkpt>
      <trkpt lat="47.03881" lon="-0.84654">
        <ele>113</ele>
        <time>2022-07-08T18:06:18+02:00</time>
      </trkpt>
      <trkpt lat="47.03876" lon="-0.84642">
        <ele>113</ele>
        <time>2022-07-08T18:06:18+02:00</time>
      </trkpt>
      <trkpt lat="47.03868" lon="-0.84634">
        <ele>113</ele>
        <time>2022-07-08T18:06:18+02:00</time>
      </trkpt>
      <trkpt lat="47.03863" lon="-0.84626">
        <ele>111</ele>
        <time>2022-07-08T18:06:18+02:00</time>
      </trkpt>
      <trkpt lat="47.03857" lon="-0.84621">
        <ele>111</ele>
        <time>2022-07-08T18:06:18+02:00</time>
      </trkpt>
      <trkpt lat="47.0385" lon="-0.84612">
        <ele>113</ele>
        <time>2022-07-08T18:06:18+02:00</time>
      </trkpt>
      <trkpt lat="47.03847" lon="-0.84598">
        <ele>113</ele>
        <time>2022-07-08T18:06:18+02:00</time>
      </trkpt>
      <trkpt lat="47.0384" lon="-0.84588">
        <ele>114</ele>
        <time>2022-07-08T18:06:18+02:00</time>
      </trkpt>
      <trkpt lat="47.03834" lon="-0.84578">
        <ele>115</ele>
        <time>2022-07-08T18:06:18+02:00</time>
      </trkpt>
      <trkpt lat="47.03829" lon="-0.84567">
        <ele>115</ele>
        <time>2022-07-08T18:06:18+02:00</time>
      </trkpt>
      <trkpt lat="47.03821" lon="-0.84558">
        <ele>114</ele>
        <time>2022-07-08T18:06:18+02:00</time>
      </trkpt>
      <trkpt lat="47.03812" lon="-0.8455">
        <ele>114</ele>
        <time>2022-07-08T18:06:18+02:00</time>
      </trkpt>
      <trkpt lat="47.03803" lon="-0.84549">
        <ele>115</ele>
        <time>2022-07-08T18:06:18+02:00</time>
      </trkpt>
      <trkpt lat="47.03793" lon="-0.8455">
        <ele>114</ele>
        <time>2022-07-08T18:06:18+02:00</time>
      </trkpt>
      <trkpt lat="47.03784" lon="-0.84557">
        <ele>114</ele>
        <time>2022-07-08T18:06:18+02:00</time>
      </trkpt>
      <trkpt lat="47.03777" lon="-0.84566">
        <ele>114</ele>
        <time>2022-07-08T18:06:18+02:00</time>
      </trkpt>
      <trkpt lat="47.03771" lon="-0.84577">
        <ele>113</ele>
        <time>2022-07-08T18:06:18+02:00</time>
      </trkpt>
      <trkpt lat="47.03764" lon="-0.84588">
        <ele>114</ele>
        <time>2022-07-08T18:06:18+02:00</time>
      </trkpt>
      <trkpt lat="47.03757" lon="-0.84598">
        <ele>114</ele>
        <time>2022-07-08T18:06:18+02:00</time>
      </trkpt>
      <trkpt lat="47.0375" lon="-0.84607">
        <ele>116</ele>
        <time>2022-07-08T18:06:18+02:00</time>
      </trkpt>
      <trkpt lat="47.03744" lon="-0.84616">
        <ele>117</ele>
        <time>2022-07-08T18:06:18+02:00</time>
      </trkpt>
      <trkpt lat="47.03737" lon="-0.84625">
        <ele>117</ele>
        <time>2022-07-08T18:06:18+02:00</time>
      </trkpt>
      <trkpt lat="47.0373" lon="-0.84635">
        <ele>117</ele>
        <time>2022-07-08T18:06:18+02:00</time>
      </trkpt>
      <trkpt lat="47.03724" lon="-0.84647">
        <ele>117</ele>
        <time>2022-07-08T18:06:18+02:00</time>
      </trkpt>
      <trkpt lat="47.03718" lon="-0.84659">
        <ele>118</ele>
        <time>2022-07-08T18:06:18+02:00</time>
      </trkpt>
      <trkpt lat="47.03712" lon="-0.8467">
        <ele>118</ele>
        <time>2022-07-08T18:06:18+02:00</time>
      </trkpt>
      <trkpt lat="47.03706" lon="-0.8468">
        <ele>119</ele>
        <time>2022-07-08T18:06:18+02:00</time>
      </trkpt>
      <trkpt lat="47.03699" lon="-0.84691">
        <ele>119</ele>
        <time>2022-07-08T18:06:18+02:00</time>
      </trkpt>
      <trkpt lat="47.03693" lon="-0.84702">
        <ele>119</ele>
        <time>2022-07-08T18:06:18+02:00</time>
      </trkpt>
      <trkpt lat="47.03687" lon="-0.84714">
        <ele>120</ele>
        <time>2022-07-08T18:06:18+02:00</time>
      </trkpt>
      <trkpt lat="47.0368" lon="-0.84725">
        <ele>119</ele>
        <time>2022-07-08T18:06:18+02:00</time>
      </trkpt>
      <trkpt lat="47.03674" lon="-0.84736">
        <ele>119</ele>
        <time>2022-07-08T18:06:18+02:00</time>
      </trkpt>
      <trkpt lat="47.03667" lon="-0.84748">
        <ele>121</ele>
        <time>2022-07-08T18:06:18+02:00</time>
      </trkpt>
      <trkpt lat="47.03663" lon="-0.84759">
        <ele>121</ele>
        <time>2022-07-08T18:06:18+02:00</time>
      </trkpt>
      <trkpt lat="47.03657" lon="-0.84771">
        <ele>120</ele>
        <time>2022-07-08T18:06:18+02:00</time>
      </trkpt>
      <trkpt lat="47.03653" lon="-0.84784">
        <ele>119</ele>
        <time>2022-07-08T18:06:18+02:00</time>
      </trkpt>
      <trkpt lat="47.03647" lon="-0.84797">
        <ele>118</ele>
        <time>2022-07-08T18:06:18+02:00</time>
      </trkpt>
      <trkpt lat="47.03643" lon="-0.8481">
        <ele>117</ele>
        <time>2022-07-08T18:06:18+02:00</time>
      </trkpt>
      <trkpt lat="47.03638" lon="-0.84821">
        <ele>116</ele>
        <time>2022-07-08T18:06:18+02:00</time>
      </trkpt>
      <trkpt lat="47.03633" lon="-0.84834">
        <ele>114</ele>
        <time>2022-07-08T18:06:18+02:00</time>
      </trkpt>
      <trkpt lat="47.03628" lon="-0.84847">
        <ele>114</ele>
        <time>2022-07-08T18:06:18+02:00</time>
      </trkpt>
      <trkpt lat="47.03625" lon="-0.84859">
        <ele>113</ele>
        <time>2022-07-08T18:06:18+02:00</time>
      </trkpt>
      <trkpt lat="47.03621" lon="-0.84871">
        <ele>112</ele>
        <time>2022-07-08T18:06:18+02:00</time>
      </trkpt>
      <trkpt lat="47.03617" lon="-0.84883">
        <ele>112</ele>
        <time>2022-07-08T18:06:18+02:00</time>
      </trkpt>
      <trkpt lat="47.03612" lon="-0.84894">
        <ele>112</ele>
        <time>2022-07-08T18:06:18+02:00</time>
      </trkpt>
      <trkpt lat="47.0361" lon="-0.84909">
        <ele>112</ele>
        <time>2022-07-08T18:06:18+02:00</time>
      </trkpt>
      <trkpt lat="47.03609" lon="-0.84922">
        <ele>111</ele>
        <time>2022-07-08T18:06:18+02:00</time>
      </trkpt>
      <trkpt lat="47.03608" lon="-0.84936">
        <ele>112</ele>
        <time>2022-07-08T18:06:18+02:00</time>
      </trkpt>
      <trkpt lat="47.03603" lon="-0.84948">
        <ele>111</ele>
        <time>2022-07-08T18:06:18+02:00</time>
      </trkpt>
      <trkpt lat="47.03598" lon="-0.84959">
        <ele>111</ele>
        <time>2022-07-08T18:06:18+02:00</time>
      </trkpt>
      <trkpt lat="47.03592" lon="-0.84971">
        <ele>111</ele>
        <time>2022-07-08T18:06:18+02:00</time>
      </trkpt>
      <trkpt lat="47.03585" lon="-0.84981">
        <ele>112</ele>
        <time>2022-07-08T18:06:18+02:00</time>
      </trkpt>
      <trkpt lat="47.03579" lon="-0.84992">
        <ele>112</ele>
        <time>2022-07-08T18:06:18+02:00</time>
      </trkpt>
      <trkpt lat="47.03572" lon="-0.85002">
        <ele>111</ele>
        <time>2022-07-08T18:06:18+02:00</time>
      </trkpt>
      <trkpt lat="47.03566" lon="-0.85013">
        <ele>111</ele>
        <time>2022-07-08T18:06:18+02:00</time>
      </trkpt>
      <trkpt lat="47.0356" lon="-0.85024">
        <ele>111</ele>
        <time>2022-07-08T18:06:18+02:00</time>
      </trkpt>
      <trkpt lat="47.03553" lon="-0.85037">
        <ele>110</ele>
        <time>2022-07-08T18:06:18+02:00</time>
      </trkpt>
      <trkpt lat="47.03548" lon="-0.85048">
        <ele>108</ele>
        <time>2022-07-08T18:06:18+02:00</time>
      </trkpt>
      <trkpt lat="47.03541" lon="-0.85059">
        <ele>108</ele>
        <time>2022-07-08T18:06:18+02:00</time>
      </trkpt>
      <trkpt lat="47.03534" lon="-0.85069">
        <ele>109</ele>
        <time>2022-07-08T18:06:18+02:00</time>
      </trkpt>
      <trkpt lat="47.03528" lon="-0.85081">
        <ele>109</ele>
        <time>2022-07-08T18:06:18+02:00</time>
      </trkpt>
      <trkpt lat="47.03521" lon="-0.85091">
        <ele>109</ele>
        <time>2022-07-08T18:06:18+02:00</time>
      </trkpt>
      <trkpt lat="47.03513" lon="-0.851">
        <ele>108</ele>
        <time>2022-07-08T18:06:18+02:00</time>
      </trkpt>
      <trkpt lat="47.03505" lon="-0.85109">
        <ele>106</ele>
        <time>2022-07-08T18:06:18+02:00</time>
      </trkpt>
      <trkpt lat="47.03499" lon="-0.85119">
        <ele>106</ele>
        <time>2022-07-08T18:06:18+02:00</time>
      </trkpt>
      <trkpt lat="47.03493" lon="-0.85129">
        <ele>106</ele>
        <time>2022-07-08T18:06:18+02:00</time>
      </trkpt>
      <trkpt lat="47.03486" lon="-0.85139">
        <ele>105</ele>
        <time>2022-07-08T18:06:18+02:00</time>
      </trkpt>
      <trkpt lat="47.03478" lon="-0.85147">
        <ele>105</ele>
        <time>2022-07-08T18:06:18+02:00</time>
      </trkpt>
      <trkpt lat="47.03468" lon="-0.85151">
        <ele>106</ele>
        <time>2022-07-08T18:06:18+02:00</time>
      </trkpt>
      <trkpt lat="47.03459" lon="-0.85155">
        <ele>107</ele>
        <time>2022-07-08T18:06:18+02:00</time>
      </trkpt>
      <trkpt lat="47.03449" lon="-0.85157">
        <ele>106</ele>
        <time>2022-07-08T18:06:18+02:00</time>
      </trkpt>
      <trkpt lat="47.0344" lon="-0.85157">
        <ele>105</ele>
        <time>2022-07-08T18:06:18+02:00</time>
      </trkpt>
      <trkpt lat="47.03431" lon="-0.8516">
        <ele>107</ele>
        <time>2022-07-08T18:06:18+02:00</time>
      </trkpt>
      <trkpt lat="47.03422" lon="-0.85164">
        <ele>107</ele>
        <time>2022-07-08T18:06:18+02:00</time>
      </trkpt>
      <trkpt lat="47.03412" lon="-0.85167">
        <ele>107</ele>
        <time>2022-07-08T18:06:18+02:00</time>
      </trkpt>
      <trkpt lat="47.03403" lon="-0.8517">
        <ele>107</ele>
        <time>2022-07-08T18:06:18+02:00</time>
      </trkpt>
      <trkpt lat="47.03394" lon="-0.85174">
        <ele>106</ele>
        <time>2022-07-08T18:06:18+02:00</time>
      </trkpt>
      <trkpt lat="47.03386" lon="-0.8518">
        <ele>105</ele>
        <time>2022-07-08T18:06:18+02:00</time>
      </trkpt>
      <trkpt lat="47.03378" lon="-0.85184">
        <ele>101</ele>
        <time>2022-07-08T18:06:18+02:00</time>
      </trkpt>
      <trkpt lat="47.0337" lon="-0.85178">
        <ele>103.2</ele>
      </trkpt>
      <trkpt lat="47.03261" lon="-0.84836">
        <ele>103.4</ele>
      </trkpt>
      <trkpt lat="47.03233" lon="-0.84734">
        <ele>100.4</ele>
      </trkpt>
      <trkpt lat="47.0323" lon="-0.84702">
        <ele>99.7</ele>
      </trkpt>
      <trkpt lat="47.03228" lon="-0.84669">
        <ele>99.4</ele>
      </trkpt>
      <trkpt lat="47.03224" lon="-0.84638">
        <ele>99.1</ele>
      </trkpt>
      <trkpt lat="47.0321" lon="-0.8461">
        <ele>99.5</ele>
      </trkpt>
      <trkpt lat="47.03199" lon="-0.84586">
        <ele>98.9</ele>
      </trkpt>
      <trkpt lat="47.03208" lon="-0.84557">
        <ele>99</ele>
      </trkpt>
      <trkpt lat="47.03205" lon="-0.84545">
        <ele>98.6</ele>
      </trkpt>
      <trkpt lat="47.03191" lon="-0.8452">
        <ele>97.6</ele>
      </trkpt>
      <trkpt lat="47.03181" lon="-0.84504">
        <ele>96.6</ele>
      </trkpt>
      <trkpt lat="47.03181" lon="-0.84465">
        <ele>93.1</ele>
      </trkpt>
      <trkpt lat="47.03192" lon="-0.84441">
        <ele>92.9</ele>
      </trkpt>
      <trkpt lat="47.03216" lon="-0.84409">
        <ele>93</ele>
      </trkpt>
      <trkpt lat="47.03232" lon="-0.84376">
        <ele>91.9</ele>
      </trkpt>
      <trkpt lat="47.03242" lon="-0.84342">
        <ele>89.8</ele>
      </trkpt>
      <trkpt lat="47.03252" lon="-0.8432">
        <ele>89.1</ele>
      </trkpt>
      <trkpt lat="47.03271" lon="-0.84298">
        <ele>88.5</ele>
      </trkpt>
      <trkpt lat="47.0328" lon="-0.84291">
        <ele>88.5</ele>
      </trkpt>
      <trkpt lat="47.03368" lon="-0.84102">
        <ele>90.1</ele>
      </trkpt>
      <trkpt lat="47.03363" lon="-0.8407">
        <ele>88.7</ele>
      </trkpt>
      <trkpt lat="47.03365" lon="-0.84018">
        <ele>88</ele>
      </trkpt>
      <trkpt lat="47.03374" lon="-0.83978">
        <ele>88</ele>
      </trkpt>
      <trkpt lat="47.03381" lon="-0.83956">
        <ele>88</ele>
      </trkpt>
      <trkpt lat="47.03407" lon="-0.83947">
        <ele>88.1</ele>
      </trkpt>
      <trkpt lat="47.03468" lon="-0.83936">
        <ele>92.8</ele>
      </trkpt>
      <trkpt lat="47.0349" lon="-0.83927">
        <ele>93</ele>
      </trkpt>
      <trkpt lat="47.03509" lon="-0.83925">
        <ele>93.4</ele>
      </trkpt>
      <trkpt lat="47.03527" lon="-0.83933">
        <ele>94.3</ele>
      </trkpt>
      <trkpt lat="47.03538" lon="-0.83946">
        <ele>95</ele>
      </trkpt>
      <trkpt lat="47.03549" lon="-0.83963">
        <ele>95.5</ele>
      </trkpt>
      <trkpt lat="47.03572" lon="-0.83975">
        <ele>97.9</ele>
      </trkpt>
      <trkpt lat="47.03585" lon="-0.83967">
        <ele>99</ele>
      </trkpt>
      <trkpt lat="47.03592" lon="-0.83953">
        <ele>99.3</ele>
      </trkpt>
      <trkpt lat="47.03602" lon="-0.83927">
        <ele>98.2</ele>
      </trkpt>
      <trkpt lat="47.03629" lon="-0.8392">
        <ele>98.7</ele>
      </trkpt>
      <trkpt lat="47.03651" lon="-0.83905">
        <ele>97</ele>
      </trkpt>
      <trkpt lat="47.03682" lon="-0.83883">
        <ele>94</ele>
      </trkpt>
      <trkpt lat="47.03684" lon="-0.83881">
        <ele>93.6</ele>
      </trkpt>
      <trkpt lat="47.03699" lon="-0.83869">
        <ele>91.9</ele>
      </trkpt>
      <trkpt lat="47.03712" lon="-0.83852">
        <ele>92.5</ele>
      </trkpt>
      <trkpt lat="47.03724" lon="-0.83832">
        <ele>92.8</ele>
      </trkpt>
      <trkpt lat="47.03732" lon="-0.83826">
        <ele>92.1</ele>
      </trkpt>
      <trkpt lat="47.03728" lon="-0.8381">
        <ele>90.1</ele>
      </trkpt>
      <trkpt lat="47.03729" lon="-0.83804">
        <ele>89.4</ele>
      </trkpt>
      <trkpt lat="47.03729" lon="-0.83801">
        <ele>89.1</ele>
      </trkpt>
      <trkpt lat="47.03733" lon="-0.83786">
        <ele>88.1</ele>
      </trkpt>
      <trkpt lat="47.03737" lon="-0.83769">
        <ele>87.5</ele>
      </trkpt>
      <trkpt lat="47.03741" lon="-0.8375">
        <ele>87.7</ele>
      </trkpt>
      <trkpt lat="47.03745" lon="-0.83738">
        <ele>88.2</ele>
      </trkpt>
      <trkpt lat="47.0375" lon="-0.83715">
        <ele>88.8</ele>
      </trkpt>
      <trkpt lat="47.03755" lon="-0.83696">
        <ele>88.5</ele>
      </trkpt>
      <trkpt lat="47.0376" lon="-0.83674">
        <ele>89</ele>
      </trkpt>
      <trkpt lat="47.03765" lon="-0.83667">
        <ele>89.6</ele>
      </trkpt>
      <trkpt lat="47.03769" lon="-0.83666">
        <ele>90</ele>
      </trkpt>
      <trkpt lat="47.03778" lon="-0.83665">
        <ele>90.9</ele>
      </trkpt>
      <trkpt lat="47.03787" lon="-0.83664">
        <ele>91.8</ele>
      </trkpt>
      <trkpt lat="47.03814" lon="-0.83588">
        <ele>90.7</ele>
      </trkpt>
      <trkpt lat="47.03814" lon="-0.83573">
        <ele>89.2</ele>
      </trkpt>
      <trkpt lat="47.03827" lon="-0.83551">
        <ele>87.9</ele>
      </trkpt>
      <trkpt lat="47.03829" lon="-0.83535">
        <ele>88.5</ele>
      </trkpt>
      <trkpt lat="47.03824" lon="-0.8351">
        <ele>89.2</ele>
      </trkpt>
      <trkpt lat="47.0382" lon="-0.8348">
        <ele>89.4</ele>
      </trkpt>
      <trkpt lat="47.03814" lon="-0.83459">
        <ele>88.2</ele>
      </trkpt>
      <trkpt lat="47.03815" lon="-0.8344">
        <ele>87.9</ele>
      </trkpt>
      <trkpt lat="47.03836" lon="-0.83416">
        <ele>88.2</ele>
      </trkpt>
      <trkpt lat="47.03846" lon="-0.83404">
        <ele>88.2</ele>
      </trkpt>
      <trkpt lat="47.03853" lon="-0.83405">
        <ele>88.7</ele>
      </trkpt>
      <trkpt lat="47.03867" lon="-0.8343">
        <ele>92.2</ele>
      </trkpt>
      <trkpt lat="47.03903" lon="-0.83401">
        <ele>95.5</ele>
      </trkpt>
      <trkpt lat="47.03943" lon="-0.83376">
        <ele>98.5</ele>
      </trkpt>
      <trkpt lat="47.03967" lon="-0.83361">
        <ele>100.1</ele>
      </trkpt>
      <trkpt lat="47.04013" lon="-0.8332">
        <ele>102.5</ele>
      </trkpt>
      <trkpt lat="47.0404" lon="-0.83297">
        <ele>103.3</ele>
      </trkpt>
      <trkpt lat="47.04059" lon="-0.83284">
        <ele>105.6</ele>
      </trkpt>
      <trkpt lat="47.04076" lon="-0.8327">
        <ele>105.8</ele>
      </trkpt>
      <trkpt lat="47.04089" lon="-0.83252">
        <ele>106.1</ele>
      </trkpt>
      <trkpt lat="47.041" lon="-0.83227">
        <ele>107.4</ele>
      </trkpt>
      <trkpt lat="47.04111" lon="-0.83183">
        <ele>110.3</ele>
      </trkpt>
      <trkpt lat="47.04109" lon="-0.83096">
        <ele>108.9</ele>
      </trkpt>
      <trkpt lat="47.04106" lon="-0.8305">
        <ele>108.1</ele>
      </trkpt>
      <trkpt lat="47.04102" lon="-0.8299">
        <ele>110.2</ele>
      </trkpt>
      <trkpt lat="47.04092" lon="-0.82911">
        <ele>110.3</ele>
      </trkpt>
      <trkpt lat="47.04083" lon="-0.8286">
        <ele>109</ele>
      </trkpt>
      <trkpt lat="47.04073" lon="-0.82818">
        <ele>108.4</ele>
      </trkpt>
      <trkpt lat="47.04083" lon="-0.82807">
        <ele>109</ele>
      </trkpt>
      <trkpt lat="47.04073" lon="-0.82764">
        <ele>106.4</ele>
      </trkpt>
      <trkpt lat="47.04043" lon="-0.82667">
        <ele>104.6</ele>
      </trkpt>
      <trkpt lat="47.04019" lon="-0.82602">
        <ele>103.2</ele>
      </trkpt>
      <trkpt lat="47.03994" lon="-0.82544">
        <ele>87.5</ele>
      </trkpt>
      <trkpt lat="47.03969" lon="-0.82494">
        <ele>99.6</ele>
      </trkpt>
      <trkpt lat="47.03943" lon="-0.82439">
        <ele>102.1</ele>
      </trkpt>
      <trkpt lat="47.03937" lon="-0.82445">
        <ele>100.9</ele>
      </trkpt>
      <trkpt lat="47.03931" lon="-0.82439">
        <ele>98.3</ele>
      </trkpt>
      <trkpt lat="47.03924" lon="-0.82436">
        <ele>96.7</ele>
      </trkpt>
      <trkpt lat="47.03922" lon="-0.82438">
        <ele>95.6</ele>
      </trkpt>
      <trkpt lat="47.03923" lon="-0.82441">
        <ele>95.5</ele>
      </trkpt>
      <trkpt lat="47.03929" lon="-0.82448">
        <ele>96.6</ele>
      </trkpt>
      <trkpt lat="47.03932" lon="-0.8246">
        <ele>96.2</ele>
      </trkpt>
      <trkpt lat="47.03934" lon="-0.8247">
        <ele>95</ele>
      </trkpt>
      <trkpt lat="47.03933" lon="-0.82477">
        <ele>93.6</ele>
      </trkpt>
      <trkpt lat="47.03927" lon="-0.82473">
        <ele>92.1</ele>
      </trkpt>
      <trkpt lat="47.03923" lon="-0.82473">
        <ele>90.7</ele>
      </trkpt>
      <trkpt lat="47.03925" lon="-0.82477">
        <ele>90.7</ele>
      </trkpt>
      <trkpt lat="47.03925" lon="-0.82482">
        <ele>90.2</ele>
      </trkpt>
      <trkpt lat="47.03876" lon="-0.82506">
        <ele>87.7</ele>
      </trkpt>
      <trkpt lat="47.03857" lon="-0.82521">
        <ele>87.8</ele>
      </trkpt>
      <trkpt lat="47.03841" lon="-0.82537">
        <ele>88</ele>
      </trkpt>
      <trkpt lat="47.03821" lon="-0.82573">
        <ele>88.6</ele>
      </trkpt>
      <trkpt lat="47.03816" lon="-0.82579">
        <ele>89.1</ele>
      </trkpt>
      <trkpt lat="47.03804" lon="-0.82578">
        <ele>90.5</ele>
      </trkpt>
      <trkpt lat="47.03798" lon="-0.82587">
        <ele>89.9</ele>
      </trkpt>
      <trkpt lat="47.03788" lon="-0.82616">
        <ele>88.8</ele>
      </trkpt>
      <trkpt lat="47.03781" lon="-0.8264">
        <ele>88.7</ele>
      </trkpt>
      <trkpt lat="47.03774" lon="-0.82675">
        <ele>87.5</ele>
      </trkpt>
      <trkpt lat="47.03772" lon="-0.82708">
        <ele>88</ele>
      </trkpt>
      <trkpt lat="47.03777" lon="-0.82744">
        <ele>88.8</ele>
      </trkpt>
      <trkpt lat="47.03785" lon="-0.82769">
        <ele>88.5</ele>
      </trkpt>
      <trkpt lat="47.03794" lon="-0.82788">
        <ele>88</ele>
      </trkpt>
      <trkpt lat="47.03803" lon="-0.82806">
        <ele>88.1</ele>
      </trkpt>
      <trkpt lat="47.03809" lon="-0.82836">
        <ele>87.9</ele>
      </trkpt>
      <trkpt lat="47.03812" lon="-0.82859">
        <ele>87.8</ele>
      </trkpt>
      <trkpt lat="47.03823" lon="-0.82968">
        <ele>88.4</ele>
      </trkpt>
      <trkpt lat="47.0382" lon="-0.83005">
        <ele>89</ele>
      </trkpt>
      <trkpt lat="47.03816" lon="-0.83039">
        <ele>89</ele>
      </trkpt>
      <trkpt lat="47.03813" lon="-0.83076">
        <ele>88.8</ele>
      </trkpt>
      <trkpt lat="47.03808" lon="-0.83108">
        <ele>88.1</ele>
      </trkpt>
      <trkpt lat="47.03804" lon="-0.8314">
        <ele>87.1</ele>
      </trkpt>
      <trkpt lat="47.0378" lon="-0.83155">
        <ele>87.4</ele>
      </trkpt>
      <trkpt lat="47.03748" lon="-0.83149">
        <ele>87.7</ele>
      </trkpt>
      <trkpt lat="47.03726" lon="-0.83153">
        <ele>87.5</ele>
      </trkpt>
      <trkpt lat="47.03693" lon="-0.83153">
        <ele>87.5</ele>
      </trkpt>
      <trkpt lat="47.03661" lon="-0.83146">
        <ele>87.7</ele>
      </trkpt>
      <trkpt lat="47.03609" lon="-0.83127">
        <ele>88.2</ele>
      </trkpt>
      <trkpt lat="47.03579" lon="-0.83095">
        <ele>89.5</ele>
      </trkpt>
      <trkpt lat="47.03555" lon="-0.83069">
        <ele>89.5</ele>
      </trkpt>
      <trkpt lat="47.03544" lon="-0.83052">
        <ele>89.8</ele>
      </trkpt>
      <trkpt lat="47.03526" lon="-0.8305">
        <ele>89.4</ele>
      </trkpt>
      <trkpt lat="47.03498" lon="-0.83043">
        <ele>90.1</ele>
      </trkpt>
      <trkpt lat="47.0346" lon="-0.83007">
        <ele>88.8</ele>
      </trkpt>
      <trkpt lat="47.034" lon="-0.8291">
        <ele>88.1</ele>
      </trkpt>
      <trkpt lat="47.03378" lon="-0.82872">
        <ele>88</ele>
      </trkpt>
      <trkpt lat="47.03346" lon="-0.82842">
        <ele>87.3</ele>
      </trkpt>
      <trkpt lat="47.0331" lon="-0.82799">
        <ele>87.4</ele>
      </trkpt>
      <trkpt lat="47.03286" lon="-0.82769">
        <ele>87.5</ele>
      </trkpt>
      <trkpt lat="47.03272" lon="-0.82762">
        <ele>87.6</ele>
      </trkpt>
      <trkpt lat="47.03263" lon="-0.82756">
        <ele>87.8</ele>
      </trkpt>
      <trkpt lat="47.03097" lon="-0.8293">
        <ele>88.7</ele>
      </trkpt>
      <trkpt lat="47.03119" lon="-0.82947">
        <ele>88.8</ele>
      </trkpt>
      <trkpt lat="47.03141" lon="-0.82968">
        <ele>88.8</ele>
      </trkpt>
      <trkpt lat="47.03159" lon="-0.82988">
        <ele>89.9</ele>
      </trkpt>
      <trkpt lat="47.03168" lon="-0.83011">
        <ele>90.9</ele>
      </trkpt>
      <trkpt lat="47.03187" lon="-0.83028">
        <ele>88.9</ele>
      </trkpt>
      <trkpt lat="47.03228" lon="-0.83035">
        <ele>87.7</ele>
      </trkpt>
      <trkpt lat="47.03258" lon="-0.83054">
        <ele>87.7</ele>
      </trkpt>
      <trkpt lat="47.03279" lon="-0.83076">
        <ele>87.7</ele>
      </trkpt>
      <trkpt lat="47.03288" lon="-0.83099">
        <ele>88</ele>
      </trkpt>
      <trkpt lat="47.03292" lon="-0.83123">
        <ele>88.2</ele>
      </trkpt>
      <trkpt lat="47.03304" lon="-0.83127">
        <ele>87.7</ele>
      </trkpt>
      <trkpt lat="47.0333" lon="-0.83134">
        <ele>87.8</ele>
      </trkpt>
      <trkpt lat="47.03348" lon="-0.8314">
        <ele>87.5</ele>
      </trkpt>
      <trkpt lat="47.03367" lon="-0.83151">
        <ele>87.3</ele>
      </trkpt>
      <trkpt lat="47.03393" lon="-0.83187">
        <ele>87.6</ele>
      </trkpt>
      <trkpt lat="47.03405" lon="-0.83206">
        <ele>87.6</ele>
      </trkpt>
      <trkpt lat="47.03421" lon="-0.83237">
        <ele>87.4</ele>
      </trkpt>
      <trkpt lat="47.03424" lon="-0.83254">
        <ele>87.8</ele>
      </trkpt>
      <trkpt lat="47.03428" lon="-0.83292">
        <ele>88.4</ele>
      </trkpt>
      <trkpt lat="47.03435" lon="-0.83312">
        <ele>88.4</ele>
      </trkpt>
      <trkpt lat="47.03446" lon="-0.8332">
        <ele>88</ele>
      </trkpt>
      <trkpt lat="47.03457" lon="-0.83331">
        <ele>87.5</ele>
      </trkpt>
      <trkpt lat="47.03481" lon="-0.83348">
        <ele>87.4</ele>
      </trkpt>
      <trkpt lat="47.03495" lon="-0.8337">
        <ele>87.2</ele>
      </trkpt>
      <trkpt lat="47.03508" lon="-0.83402">
        <ele>87.3</ele>
      </trkpt>
      <trkpt lat="47.0352" lon="-0.83417">
        <ele>87.3</ele>
      </trkpt>
      <trkpt lat="47.03538" lon="-0.83445">
        <ele>87.6</ele>
      </trkpt>
      <trkpt lat="47.03554" lon="-0.83458">
        <ele>87.5</ele>
      </trkpt>
      <trkpt lat="47.03561" lon="-0.83468">
        <ele>87.7</ele>
      </trkpt>
      <trkpt lat="47.03568" lon="-0.83483">
        <ele>87.8</ele>
      </trkpt>
      <trkpt lat="47.03573" lon="-0.83496">
        <ele>87.7</ele>
      </trkpt>
      <trkpt lat="47.03579" lon="-0.83505">
        <ele>87.3</ele>
      </trkpt>
      <trkpt lat="47.03579" lon="-0.83524">
        <ele>87.2</ele>
      </trkpt>
      <trkpt lat="47.0357" lon="-0.83543">
        <ele>87.2</ele>
      </trkpt>
      <trkpt lat="47.03561" lon="-0.83545">
        <ele>87.3</ele>
      </trkpt>
      <trkpt lat="47.03545" lon="-0.83552">
        <ele>87.5</ele>
      </trkpt>
      <trkpt lat="47.03535" lon="-0.83569">
        <ele>87.7</ele>
      </trkpt>
      <trkpt lat="47.0353" lon="-0.83599">
        <ele>87.4</ele>
      </trkpt>
      <trkpt lat="47.03526" lon="-0.83623">
        <ele>87.1</ele>
      </trkpt>
      <trkpt lat="47.03522" lon="-0.83651">
        <ele>87.2</ele>
      </trkpt>
      <trkpt lat="47.03517" lon="-0.83655">
        <ele>87.4</ele>
      </trkpt>
      <trkpt lat="47.03508" lon="-0.83661">
        <ele>87.7</ele>
      </trkpt>
      <trkpt lat="47.03492" lon="-0.83666">
        <ele>88</ele>
      </trkpt>
      <trkpt lat="47.03481" lon="-0.83664">
        <ele>88.1</ele>
      </trkpt>
      <trkpt lat="47.0347" lon="-0.83664">
        <ele>88.2</ele>
      </trkpt>
      <trkpt lat="47.03451" lon="-0.83668">
        <ele>88.7</ele>
      </trkpt>
      <trkpt lat="47.03441" lon="-0.83698">
        <ele>88</ele>
      </trkpt>
      <trkpt lat="47.03418" lon="-0.83715">
        <ele>88.2</ele>
      </trkpt>
      <trkpt lat="47.03315" lon="-0.83754">
        <ele>88.4</ele>
      </trkpt>
      <trkpt lat="47.03261" lon="-0.83779">
        <ele>88.1</ele>
      </trkpt>
      <trkpt lat="47.03242" lon="-0.83786">
        <ele>88.7</ele>
      </trkpt>
      <trkpt lat="47.0322" lon="-0.83786">
        <ele>89.5</ele>
      </trkpt>
      <trkpt lat="47.03203" lon="-0.83786">
        <ele>90.5</ele>
      </trkpt>
      <trkpt lat="47.0321" lon="-0.83801">
        <ele>89.5</ele>
      </trkpt>
      <trkpt lat="47.03214" lon="-0.83809">
        <ele>88.7</ele>
      </trkpt>
      <trkpt lat="47.03207" lon="-0.83839">
        <ele>89.1</ele>
      </trkpt>
      <trkpt lat="47.0319" lon="-0.83876">
        <ele>88.9</ele>
      </trkpt>
      <trkpt lat="47.03153" lon="-0.8394">
        <ele>89.7</ele>
      </trkpt>
      <trkpt lat="47.03137" lon="-0.83996">
        <ele>90.3</ele>
      </trkpt>
      <trkpt lat="47.03125" lon="-0.84043">
        <ele>88.7</ele>
      </trkpt>
      <trkpt lat="47.03118" lon="-0.84097">
        <ele>88.5</ele>
      </trkpt>
      <trkpt lat="47.03118" lon="-0.84146">
        <ele>87.8</ele>
      </trkpt>
      <trkpt lat="47.03112" lon="-0.84181">
        <ele>87.5</ele>
      </trkpt>
      <trkpt lat="47.03092" lon="-0.84204">
        <ele>87.5</ele>
      </trkpt>
      <trkpt lat="47.03064" lon="-0.84224">
        <ele>87</ele>
      </trkpt>
      <trkpt lat="47.03033" lon="-0.84211">
        <ele>87.8</ele>
      </trkpt>
      <trkpt lat="47.02978" lon="-0.84204">
        <ele>87.6</ele>
      </trkpt>
      <trkpt lat="47.02948" lon="-0.84163">
        <ele>87.4</ele>
      </trkpt>
      <trkpt lat="47.02934" lon="-0.84148">
        <ele>87.4</ele>
      </trkpt>
      <trkpt lat="47.0291" lon="-0.84161">
        <ele>87</ele>
      </trkpt>
      <trkpt lat="47.02885" lon="-0.84161">
        <ele>87.3</ele>
      </trkpt>
      <trkpt lat="47.02855" lon="-0.84198">
        <ele>87.4</ele>
      </trkpt>
      <trkpt lat="47.02831" lon="-0.8423">
        <ele>87.8</ele>
      </trkpt>
      <trkpt lat="47.02804" lon="-0.84245">
        <ele>87.5</ele>
      </trkpt>
      <trkpt lat="47.02782" lon="-0.84245">
        <ele>88.4</ele>
      </trkpt>
      <trkpt lat="47.02757" lon="-0.84249">
        <ele>88.1</ele>
      </trkpt>
      <trkpt lat="47.02739" lon="-0.84256">
        <ele>88.4</ele>
      </trkpt>
      <trkpt lat="47.02706" lon="-0.84262">
        <ele>89.7</ele>
      </trkpt>
      <trkpt lat="47.02676" lon="-0.84269">
        <ele>90.3</ele>
      </trkpt>
      <trkpt lat="47.02641" lon="-0.84273">
        <ele>90.2</ele>
      </trkpt>
      <trkpt lat="47.0261" lon="-0.84312">
        <ele>87.6</ele>
      </trkpt>
      <trkpt lat="47.02578" lon="-0.84367">
        <ele>98.7</ele>
      </trkpt>
      <trkpt lat="47.02561" lon="-0.84423">
        <ele>100.1</ele>
      </trkpt>
      <trkpt lat="47.02552" lon="-0.84436">
        <ele>101.8</ele>
      </trkpt>
      <trkpt lat="47.02526" lon="-0.8443">
        <ele>105.8</ele>
      </trkpt>
      <trkpt lat="47.02483" lon="-0.8444">
        <ele>109.5</ele>
      </trkpt>
      <trkpt lat="47.02426" lon="-0.84515">
        <ele>104.6</ele>
      </trkpt>
      <trkpt lat="47.02412" lon="-0.84556">
        <ele>102.5</ele>
      </trkpt>
      <trkpt lat="47.024" lon="-0.84597">
        <ele>102.3</ele>
      </trkpt>
      <trkpt lat="47.024" lon="-0.84616">
        <ele>101.5</ele>
      </trkpt>
      <trkpt lat="47.02426" lon="-0.84623">
        <ele>98.1</ele>
      </trkpt>
      <trkpt lat="47.02452" lon="-0.84623">
        <ele>93.5</ele>
      </trkpt>
      <trkpt lat="47.0245" lon="-0.84636">
        <ele>92.4</ele>
      </trkpt>
      <trkpt lat="47.02441" lon="-0.84657">
        <ele>89.3</ele>
      </trkpt>
      <trkpt lat="47.02451" lon="-0.84681">
        <ele>83.2</ele>
      </trkpt>
      <trkpt lat="47.02464" lon="-0.84717">
        <ele>79.3</ele>
      </trkpt>
      <trkpt lat="47.02473" lon="-0.84741">
        <ele>78.3</ele>
      </trkpt>
      <trkpt lat="47.02476" lon="-0.84762">
        <ele>78.7</ele>
      </trkpt>
      <trkpt lat="47.02466" lon="-0.84781">
        <ele>79.5</ele>
      </trkpt>
      <trkpt lat="47.0245" lon="-0.84788">
        <ele>79.2</ele>
      </trkpt>
      <trkpt lat="47.02428" lon="-0.84794">
        <ele>79.3</ele>
      </trkpt>
      <trkpt lat="47.02409" lon="-0.84805">
        <ele>79.8</ele>
      </trkpt>
      <trkpt lat="47.02378" lon="-0.84859">
        <ele>80.1</ele>
      </trkpt>
      <trkpt lat="47.02363" lon="-0.84893">
        <ele>79.2</ele>
      </trkpt>
      <trkpt lat="47.02344" lon="-0.84919">
        <ele>78.1</ele>
      </trkpt>
      <trkpt lat="47.02354" lon="-0.84975">
        <ele>76.9</ele>
      </trkpt>
      <trkpt lat="47.02368" lon="-0.85">
        <ele>79</ele>
      </trkpt>
      <trkpt lat="47.02387" lon="-0.85022">
        <ele>78.9</ele>
      </trkpt>
      <trkpt lat="47.0241" lon="-0.85048">
        <ele>79.1</ele>
      </trkpt>
      <trkpt lat="47.02435" lon="-0.85058">
        <ele>81.5</ele>
      </trkpt>
      <trkpt lat="47.0245" lon="-0.85069">
        <ele>83.8</ele>
      </trkpt>
      <trkpt lat="47.02464" lon="-0.85099">
        <ele>85.7</ele>
      </trkpt>
      <trkpt lat="47.02474" lon="-0.85142">
        <ele>83.9</ele>
      </trkpt>
      <trkpt lat="47.02512" lon="-0.85206">
        <ele>82</ele>
      </trkpt>
      <trkpt lat="47.02537" lon="-0.85232">
        <ele>82.5</ele>
      </trkpt>
      <trkpt lat="47.02567" lon="-0.85279">
        <ele>81.6</ele>
      </trkpt>
      <trkpt lat="47.02587" lon="-0.8532">
        <ele>79.7</ele>
      </trkpt>
      <trkpt lat="47.02597" lon="-0.85331">
        <ele>79.6</ele>
      </trkpt>
      <trkpt lat="47.02669" lon="-0.85314">
        <ele>86.4</ele>
      </trkpt>
      <trkpt lat="47.02701" lon="-0.85303">
        <ele>90.2</ele>
      </trkpt>
      <trkpt lat="47.02725" lon="-0.85294">
        <ele>91.2</ele>
      </trkpt>
      <trkpt lat="47.02763" lon="-0.85247">
        <ele>93.7</ele>
      </trkpt>
      <trkpt lat="47.02806" lon="-0.85213">
        <ele>95</ele>
      </trkpt>
      <trkpt lat="47.02865" lon="-0.85193">
        <ele>95</ele>
      </trkpt>
      <trkpt lat="47.029" lon="-0.85185">
        <ele>94.4</ele>
      </trkpt>
      <trkpt lat="47.02957" lon="-0.85189">
        <ele>94.1</ele>
      </trkpt>
      <trkpt lat="47.02999" lon="-0.85198">
        <ele>95</ele>
      </trkpt>
      <trkpt lat="47.03058" lon="-0.85196">
        <ele>98.1</ele>
      </trkpt>
      <trkpt lat="47.03087" lon="-0.85191">
        <ele>100.1</ele>
      </trkpt>
      <trkpt lat="47.03131" lon="-0.85185">
        <ele>101.2</ele>
      </trkpt>
      <trkpt lat="47.03181" lon="-0.85183">
        <ele>101.2</ele>
      </trkpt>
      <trkpt lat="47.0319" lon="-0.85183">
        <ele>101.1</ele>
      </trkpt>
      <trkpt lat="47.03193" lon="-0.85204">
        <ele>100.7</ele>
      </trkpt>
      <trkpt lat="47.0322" lon="-0.85215">
        <ele>100.3</ele>
      </trkpt>
      <trkpt lat="47.0327" lon="-0.85239">
        <ele>100.3</ele>
      </trkpt>
      <trkpt lat="47.03298" lon="-0.85249">
        <ele>100</ele>
      </trkpt>
      <trkpt lat="47.03291" lon="-0.85254">
        <ele>99.9</ele>
      </trkpt>
      <trkpt lat="47.03298" lon="-0.85253">
        <ele>101</ele>
        <time>2022-07-08T18:06:18+02:00</time>
      </trkpt>
      <trkpt lat="47.03291" lon="-0.85263">
        <ele>101</ele>
        <time>2022-07-08T18:06:18+02:00</time>
      </trkpt>
      <trkpt lat="47.0329" lon="-0.85277">
        <ele>100</ele>
        <time>2022-07-08T18:06:18+02:00</time>
      </trkpt>
      <trkpt lat="47.03286" lon="-0.85291">
        <ele>99</ele>
        <time>2022-07-08T18:06:18+02:00</time>
      </trkpt>
      <trkpt lat="47.03283" lon="-0.85303">
        <ele>100</ele>
        <time>2022-07-08T18:06:18+02:00</time>
      </trkpt>
      <trkpt lat="47.0328" lon="-0.85316">
        <ele>100</ele>
        <time>2022-07-08T18:06:18+02:00</time>
      </trkpt>
      <trkpt lat="47.03277" lon="-0.8533">
        <ele>99</ele>
        <time>2022-07-08T18:06:18+02:00</time>
      </trkpt>
      <trkpt lat="47.03274" lon="-0.85344">
        <ele>98</ele>
        <time>2022-07-08T18:06:18+02:00</time>
      </trkpt>
      <trkpt lat="47.03272" lon="-0.85357">
        <ele>99</ele>
        <time>2022-07-08T18:06:18+02:00</time>
      </trkpt>
      <trkpt lat="47.03269" lon="-0.85372">
        <ele>98</ele>
        <time>2022-07-08T18:06:18+02:00</time>
      </trkpt>
      <trkpt lat="47.03266" lon="-0.85384">
        <ele>97</ele>
        <time>2022-07-08T18:06:18+02:00</time>
      </trkpt>
      <trkpt lat="47.03262" lon="-0.85396">
        <ele>97</ele>
        <time>2022-07-08T18:06:18+02:00</time>
      </trkpt>
      <trkpt lat="47.03261" lon="-0.85409">
        <ele>97</ele>
        <time>2022-07-08T18:06:18+02:00</time>
      </trkpt>
      <trkpt lat="47.03259" lon="-0.85423">
        <ele>96</ele>
        <time>2022-07-08T18:06:18+02:00</time>
      </trkpt>
      <trkpt lat="47.03256" lon="-0.85437">
        <ele>96</ele>
        <time>2022-07-08T18:06:18+02:00</time>
      </trkpt>
      <trkpt lat="47.03253" lon="-0.85449">
        <ele>96</ele>
        <time>2022-07-08T18:06:18+02:00</time>
      </trkpt>
      <trkpt lat="47.03248" lon="-0.85461">
        <ele>94</ele>
        <time>2022-07-08T18:06:18+02:00</time>
      </trkpt>
      <trkpt lat="47.03244" lon="-0.85473">
        <ele>93</ele>
        <time>2022-07-08T18:06:18+02:00</time>
      </trkpt>
      <trkpt lat="47.03241" lon="-0.85487">
        <ele>92</ele>
        <time>2022-07-08T18:06:18+02:00</time>
      </trkpt>
      <trkpt lat="47.03238" lon="-0.85501">
        <ele>90</ele>
        <time>2022-07-08T18:06:18+02:00</time>
      </trkpt>
      <trkpt lat="47.03244" lon="-0.85515">
        <ele>89</ele>
        <time>2022-07-08T18:06:18+02:00</time>
      </trkpt>
      <trkpt lat="47.0325" lon="-0.85526">
        <ele>88</ele>
        <time>2022-07-08T18:06:18+02:00</time>
      </trkpt>
      <trkpt lat="47.03256" lon="-0.85539">
        <ele>88</ele>
        <time>2022-07-08T18:06:18+02:00</time>
      </trkpt>
      <trkpt lat="47.03264" lon="-0.85543">
        <ele>87</ele>
        <time>2022-07-08T18:06:18+02:00</time>
      </trkpt>
      <trkpt lat="47.03271" lon="-0.85552">
        <ele>88</ele>
        <time>2022-07-08T18:06:18+02:00</time>
      </trkpt>
      <trkpt lat="47.03276" lon="-0.85565">
        <ele>87</ele>
        <time>2022-07-08T18:06:18+02:00</time>
      </trkpt>
      <trkpt lat="47.03267" lon="-0.85561">
        <ele>86</ele>
        <time>2022-07-08T18:06:18+02:00</time>
      </trkpt>
      <trkpt lat="47.03258" lon="-0.85559">
        <ele>85</ele>
        <time>2022-07-08T18:06:18+02:00</time>
      </trkpt>
      <trkpt lat="47.03249" lon="-0.85555">
        <ele>84</ele>
        <time>2022-07-08T18:06:18+02:00</time>
      </trkpt>
      <trkpt lat="47.0324" lon="-0.85549">
        <ele>84</ele>
        <time>2022-07-08T18:06:18+02:00</time>
      </trkpt>
      <trkpt lat="47.0324" lon="-0.85564">
        <ele>82</ele>
        <time>2022-07-08T18:06:18+02:00</time>
      </trkpt>
      <trkpt lat="47.03245" lon="-0.85575">
        <ele>82</ele>
        <time>2022-07-08T18:06:18+02:00</time>
      </trkpt>
      <trkpt lat="47.03252" lon="-0.85588">
        <ele>81</ele>
        <time>2022-07-08T18:06:18+02:00</time>
      </trkpt>
      <trkpt lat="47.03258" lon="-0.85598">
        <ele>81</ele>
        <time>2022-07-08T18:06:18+02:00</time>
      </trkpt>
      <trkpt lat="47.03267" lon="-0.85602">
        <ele>80</ele>
        <time>2022-07-08T18:06:18+02:00</time>
      </trkpt>
      <trkpt lat="47.03273" lon="-0.85611">
        <ele>78</ele>
        <time>2022-07-08T18:06:18+02:00</time>
      </trkpt>
      <trkpt lat="47.03279" lon="-0.85615">
        <ele>78</ele>
        <time>2022-07-08T18:06:18+02:00</time>
      </trkpt>
      <trkpt lat="47.03289" lon="-0.85625">
        <ele>78</ele>
        <time>2022-07-08T18:06:18+02:00</time>
      </trkpt>
      <trkpt lat="47.03294" lon="-0.85635">
        <ele>78</ele>
        <time>2022-07-08T18:06:18+02:00</time>
      </trkpt>
      <trkpt lat="47.03301" lon="-0.85641">
        <ele>77</ele>
        <time>2022-07-08T18:06:18+02:00</time>
      </trkpt>
      <trkpt lat="47.0331" lon="-0.85641">
        <ele>79</ele>
        <time>2022-07-08T18:06:18+02:00</time>
      </trkpt>
      <trkpt lat="47.03319" lon="-0.85634">
        <ele>80</ele>
        <time>2022-07-08T18:06:18+02:00</time>
      </trkpt>
      <trkpt lat="47.03329" lon="-0.85639">
        <ele>80</ele>
        <time>2022-07-08T18:06:18+02:00</time>
      </trkpt>
      <trkpt lat="47.03337" lon="-0.85647">
        <ele>78</ele>
        <time>2022-07-08T18:06:18+02:00</time>
      </trkpt>
      <trkpt lat="47.03342" lon="-0.85659">
        <ele>79</ele>
        <time>2022-07-08T18:06:18+02:00</time>
      </trkpt>
      <trkpt lat="47.03344" lon="-0.85672">
        <ele>78</ele>
        <time>2022-07-08T18:06:18+02:00</time>
      </trkpt>
      <trkpt lat="47.03341" lon="-0.85685">
        <ele>77</ele>
        <time>2022-07-08T18:06:18+02:00</time>
      </trkpt>
      <trkpt lat="47.0334" lon="-0.857">
        <ele>76</ele>
        <time>2022-07-08T18:06:18+02:00</time>
      </trkpt>
      <trkpt lat="47.03338" lon="-0.85713">
        <ele>76</ele>
        <time>2022-07-08T18:06:18+02:00</time>
      </trkpt>
      <trkpt lat="47.03334" lon="-0.85727">
        <ele>76</ele>
        <time>2022-07-08T18:06:18+02:00</time>
      </trkpt>
      <trkpt lat="47.03332" lon="-0.85742">
        <ele>76</ele>
        <time>2022-07-08T18:06:18+02:00</time>
      </trkpt>
      <trkpt lat="47.03342" lon="-0.85746">
        <ele>76</ele>
        <time>2022-07-08T18:06:18+02:00</time>
      </trkpt>
      <trkpt lat="47.03351" lon="-0.85744">
        <ele>76</ele>
        <time>2022-07-08T18:06:18+02:00</time>
      </trkpt>
      <trkpt lat="47.03361" lon="-0.85743">
        <ele>77</ele>
        <time>2022-07-08T18:06:18+02:00</time>
      </trkpt>
      <trkpt lat="47.0337" lon="-0.85741">
        <ele>76</ele>
        <time>2022-07-08T18:06:18+02:00</time>
      </trkpt>
      <trkpt lat="47.0338" lon="-0.85741">
        <ele>76</ele>
        <time>2022-07-08T18:06:18+02:00</time>
      </trkpt>
      <trkpt lat="47.0339" lon="-0.85741">
        <ele>76</ele>
        <time>2022-07-08T18:06:18+02:00</time>
      </trkpt>
      <trkpt lat="47.03396" lon="-0.85752">
        <ele>76</ele>
        <time>2022-07-08T18:06:18+02:00</time>
      </trkpt>
      <trkpt lat="47.03401" lon="-0.85763">
        <ele>76</ele>
        <time>2022-07-08T18:06:18+02:00</time>
      </trkpt>
      <trkpt lat="47.03405" lon="-0.85776">
        <ele>76</ele>
        <time>2022-07-08T18:06:18+02:00</time>
      </trkpt>
      <trkpt lat="47.03411" lon="-0.85788">
        <ele>75</ele>
        <time>2022-07-08T18:06:18+02:00</time>
      </trkpt>
      <trkpt lat="47.03417" lon="-0.85799">
        <ele>75</ele>
        <time>2022-07-08T18:06:18+02:00</time>
      </trkpt>
      <trkpt lat="47.03423" lon="-0.8581">
        <ele>75</ele>
        <time>2022-07-08T18:06:18+02:00</time>
      </trkpt>
      <trkpt lat="47.03429" lon="-0.85821">
        <ele>76</ele>
        <time>2022-07-08T18:06:18+02:00</time>
      </trkpt>
      <trkpt lat="47.03435" lon="-0.85831">
        <ele>76</ele>
        <time>2022-07-08T18:06:18+02:00</time>
      </trkpt>
      <trkpt lat="47.03441" lon="-0.85844">
        <ele>76</ele>
        <time>2022-07-08T18:06:18+02:00</time>
      </trkpt>
      <trkpt lat="47.03446" lon="-0.85855">
        <ele>75</ele>
        <time>2022-07-08T18:06:18+02:00</time>
      </trkpt>
      <trkpt lat="47.03449" lon="-0.85868">
        <ele>75</ele>
        <time>2022-07-08T18:06:18+02:00</time>
      </trkpt>
      <trkpt lat="47.03453" lon="-0.8588">
        <ele>76</ele>
        <time>2022-07-08T18:06:18+02:00</time>
      </trkpt>
      <trkpt lat="47.03459" lon="-0.85892">
        <ele>76</ele>
        <time>2022-07-08T18:06:18+02:00</time>
      </trkpt>
      <trkpt lat="47.03465" lon="-0.85902">
        <ele>76</ele>
        <time>2022-07-08T18:06:18+02:00</time>
      </trkpt>
      <trkpt lat="47.03473" lon="-0.85912">
        <ele>75</ele>
        <time>2022-07-08T18:06:18+02:00</time>
      </trkpt>
      <trkpt lat="47.03479" lon="-0.85923">
        <ele>75</ele>
        <time>2022-07-08T18:06:18+02:00</time>
      </trkpt>
      <trkpt lat="47.03485" lon="-0.85934">
        <ele>76</ele>
        <time>2022-07-08T18:06:18+02:00</time>
      </trkpt>
      <trkpt lat="47.03489" lon="-0.85948">
        <ele>76</ele>
        <time>2022-07-08T18:06:18+02:00</time>
      </trkpt>
      <trkpt lat="47.03491" lon="-0.85961">
        <ele>76</ele>
        <time>2022-07-08T18:06:18+02:00</time>
      </trkpt>
      <trkpt lat="47.0349" lon="-0.85975">
        <ele>77</ele>
        <time>2022-07-08T18:06:18+02:00</time>
      </trkpt>
      <trkpt lat="47.0349" lon="-0.85989">
        <ele>77</ele>
        <time>2022-07-08T18:06:18+02:00</time>
      </trkpt>
      <trkpt lat="47.03491" lon="-0.86002">
        <ele>76</ele>
        <time>2022-07-08T18:06:18+02:00</time>
      </trkpt>
      <trkpt lat="47.03494" lon="-0.86016">
        <ele>76</ele>
        <time>2022-07-08T18:06:18+02:00</time>
      </trkpt>
      <trkpt lat="47.03498" lon="-0.86028">
        <ele>76</ele>
        <time>2022-07-08T18:06:18+02:00</time>
      </trkpt>
      <trkpt lat="47.03507" lon="-0.86033">
        <ele>76</ele>
        <time>2022-07-08T18:06:18+02:00</time>
      </trkpt>
      <trkpt lat="47.03515" lon="-0.86038">
        <ele>76</ele>
        <time>2022-07-08T18:06:18+02:00</time>
      </trkpt>
      <trkpt lat="47.03524" lon="-0.86045">
        <ele>77</ele>
        <time>2022-07-08T18:06:18+02:00</time>
      </trkpt>
      <trkpt lat="47.03533" lon="-0.86047">
        <ele>77</ele>
        <time>2022-07-08T18:06:18+02:00</time>
      </trkpt>
      <trkpt lat="47.03543" lon="-0.86048">
        <ele>77</ele>
        <time>2022-07-08T18:06:18+02:00</time>
      </trkpt>
      <trkpt lat="47.03553" lon="-0.86049">
        <ele>77</ele>
        <time>2022-07-08T18:06:18+02:00</time>
      </trkpt>
      <trkpt lat="47.03563" lon="-0.8605">
        <ele>77</ele>
        <time>2022-07-08T18:06:18+02:00</time>
      </trkpt>
      <trkpt lat="47.03573" lon="-0.86052">
        <ele>79</ele>
        <time>2022-07-08T18:06:18+02:00</time>
      </trkpt>
      <trkpt lat="47.03581" lon="-0.86059">
        <ele>78</ele>
        <time>2022-07-08T18:06:18+02:00</time>
      </trkpt>
      <trkpt lat="47.03591" lon="-0.8606">
        <ele>77</ele>
        <time>2022-07-08T18:06:18+02:00</time>
      </trkpt>
      <trkpt lat="47.036" lon="-0.86062">
        <ele>78</ele>
        <time>2022-07-08T18:06:18+02:00</time>
      </trkpt>
      <trkpt lat="47.0361" lon="-0.86063">
        <ele>78</ele>
        <time>2022-07-08T18:06:18+02:00</time>
      </trkpt>
      <trkpt lat="47.03619" lon="-0.86062">
        <ele>78</ele>
        <time>2022-07-08T18:06:18+02:00</time>
      </trkpt>
      <trkpt lat="47.03631" lon="-0.86064">
        <ele>78</ele>
        <time>2022-07-08T18:06:18+02:00</time>
      </trkpt>
      <trkpt lat="47.0364" lon="-0.86065">
        <ele>77</ele>
        <time>2022-07-08T18:06:18+02:00</time>
      </trkpt>
      <trkpt lat="47.03651" lon="-0.86065">
        <ele>77</ele>
        <time>2022-07-08T18:06:18+02:00</time>
      </trkpt>
      <trkpt lat="47.03661" lon="-0.86066">
        <ele>77</ele>
        <time>2022-07-08T18:06:18+02:00</time>
      </trkpt>
      <trkpt lat="47.0367" lon="-0.86067">
        <ele>76</ele>
        <time>2022-07-08T18:06:18+02:00</time>
      </trkpt>
      <trkpt lat="47.03679" lon="-0.86071">
        <ele>76</ele>
        <time>2022-07-08T18:06:18+02:00</time>
      </trkpt>
      <trkpt lat="47.03688" lon="-0.86078">
        <ele>76</ele>
        <time>2022-07-08T18:06:18+02:00</time>
      </trkpt>
      <trkpt lat="47.03695" lon="-0.86088">
        <ele>76</ele>
        <time>2022-07-08T18:06:18+02:00</time>
      </trkpt>
      <trkpt lat="47.03703" lon="-0.86098">
        <ele>76</ele>
        <time>2022-07-08T18:06:18+02:00</time>
      </trkpt>
      <trkpt lat="47.03709" lon="-0.86109">
        <ele>77</ele>
        <time>2022-07-08T18:06:18+02:00</time>
      </trkpt>
      <trkpt lat="47.03715" lon="-0.86118">
        <ele>77</ele>
        <time>2022-07-08T18:06:18+02:00</time>
      </trkpt>
      <trkpt lat="47.03719" lon="-0.86131">
        <ele>77</ele>
        <time>2022-07-08T18:06:18+02:00</time>
      </trkpt>
      <trkpt lat="47.03724" lon="-0.86143">
        <ele>78</ele>
        <time>2022-07-08T18:06:18+02:00</time>
      </trkpt>
      <trkpt lat="47.03729" lon="-0.86155">
        <ele>77</ele>
        <time>2022-07-08T18:06:18+02:00</time>
      </trkpt>
      <trkpt lat="47.03734" lon="-0.86167">
        <ele>77</ele>
        <time>2022-07-08T18:06:18+02:00</time>
      </trkpt>
      <trkpt lat="47.03742" lon="-0.86176">
        <ele>77</ele>
        <time>2022-07-08T18:06:18+02:00</time>
      </trkpt>
      <trkpt lat="47.03752" lon="-0.86181">
        <ele>77</ele>
        <time>2022-07-08T18:06:18+02:00</time>
      </trkpt>
      <trkpt lat="47.0376" lon="-0.86186">
        <ele>77</ele>
        <time>2022-07-08T18:06:18+02:00</time>
      </trkpt>
      <trkpt lat="47.0377" lon="-0.86182">
        <ele>77</ele>
        <time>2022-07-08T18:06:18+02:00</time>
      </trkpt>
      <trkpt lat="47.03779" lon="-0.86178">
        <ele>77</ele>
        <time>2022-07-08T18:06:18+02:00</time>
      </trkpt>
      <trkpt lat="47.03788" lon="-0.86176">
        <ele>77</ele>
        <time>2022-07-08T18:06:18+02:00</time>
      </trkpt>
      <trkpt lat="47.03797" lon="-0.86171">
        <ele>77</ele>
        <time>2022-07-08T18:06:18+02:00</time>
      </trkpt>
      <trkpt lat="47.03804" lon="-0.86162">
        <ele>76</ele>
        <time>2022-07-08T18:06:18+02:00</time>
      </trkpt>
      <trkpt lat="47.03814" lon="-0.86164">
        <ele>76</ele>
        <time>2022-07-08T18:06:18+02:00</time>
      </trkpt>
      <trkpt lat="47.03821" lon="-0.86174">
        <ele>76</ele>
        <time>2022-07-08T18:06:18+02:00</time>
      </trkpt>
      <trkpt lat="47.03829" lon="-0.86182">
        <ele>77</ele>
        <time>2022-07-08T18:06:18+02:00</time>
      </trkpt>
      <trkpt lat="47.03838" lon="-0.86185">
        <ele>77</ele>
        <time>2022-07-08T18:06:18+02:00</time>
      </trkpt>
      <trkpt lat="47.03847" lon="-0.86189">
        <ele>76</ele>
        <time>2022-07-08T18:06:18+02:00</time>
      </trkpt>
      <trkpt lat="47.03855" lon="-0.86195">
        <ele>75</ele>
        <time>2022-07-08T18:06:18+02:00</time>
      </trkpt>
      <trkpt lat="47.03863" lon="-0.86202">
        <ele>76</ele>
        <time>2022-07-08T18:06:18+02:00</time>
      </trkpt>
      <trkpt lat="47.03872" lon="-0.86205">
        <ele>75</ele>
        <time>2022-07-08T18:06:18+02:00</time>
      </trkpt>
      <trkpt lat="47.03881" lon="-0.86212">
        <ele>76</ele>
        <time>2022-07-08T18:06:18+02:00</time>
      </trkpt>
      <trkpt lat="47.03889" lon="-0.86221">
        <ele>76</ele>
        <time>2022-07-08T18:06:18+02:00</time>
      </trkpt>
      <trkpt lat="47.03895" lon="-0.86231">
        <ele>76</ele>
        <time>2022-07-08T18:06:18+02:00</time>
      </trkpt>
      <trkpt lat="47.039" lon="-0.86243">
        <ele>77</ele>
        <time>2022-07-08T18:06:18+02:00</time>
      </trkpt>
      <trkpt lat="47.03907" lon="-0.86254">
        <ele>77</ele>
        <time>2022-07-08T18:06:18+02:00</time>
      </trkpt>
      <trkpt lat="47.03914" lon="-0.86262">
        <ele>77</ele>
        <time>2022-07-08T18:06:18+02:00</time>
      </trkpt>
      <trkpt lat="47.03924" lon="-0.86263">
        <ele>78</ele>
        <time>2022-07-08T18:06:18+02:00</time>
      </trkpt>
      <trkpt lat="47.03933" lon="-0.86264">
        <ele>77</ele>
        <time>2022-07-08T18:06:18+02:00</time>
      </trkpt>
      <trkpt lat="47.03943" lon="-0.86265">
        <ele>77</ele>
        <time>2022-07-08T18:06:18+02:00</time>
      </trkpt>
      <trkpt lat="47.03952" lon="-0.86266">
        <ele>77</ele>
        <time>2022-07-08T18:06:18+02:00</time>
      </trkpt>
      <trkpt lat="47.03962" lon="-0.86269">
        <ele>77</ele>
        <time>2022-07-08T18:06:18+02:00</time>
      </trkpt>
      <trkpt lat="47.03972" lon="-0.86273">
        <ele>78</ele>
        <time>2022-07-08T18:06:18+02:00</time>
      </trkpt>
      <trkpt lat="47.03981" lon="-0.86278">
        <ele>77</ele>
        <time>2022-07-08T18:06:18+02:00</time>
      </trkpt>
      <trkpt lat="47.0399" lon="-0.86285">
        <ele>77</ele>
        <time>2022-07-08T18:06:18+02:00</time>
      </trkpt>
      <trkpt lat="47.03999" lon="-0.86285">
        <ele>77</ele>
        <time>2022-07-08T18:06:18+02:00</time>
      </trkpt>
      <trkpt lat="47.04009" lon="-0.86284">
        <ele>76</ele>
        <time>2022-07-08T18:06:18+02:00</time>
      </trkpt>
      <trkpt lat="47.04018" lon="-0.86284">
        <ele>77</ele>
        <time>2022-07-08T18:06:18+02:00</time>
      </trkpt>
      <trkpt lat="47.04026" lon="-0.86277">
        <ele>77</ele>
        <time>2022-07-08T18:06:18+02:00</time>
      </trkpt>
      <trkpt lat="47.04034" lon="-0.86269">
        <ele>77</ele>
        <time>2022-07-08T18:06:18+02:00</time>
      </trkpt>
      <trkpt lat="47.04042" lon="-0.86262">
        <ele>77</ele>
        <time>2022-07-08T18:06:18+02:00</time>
      </trkpt>
      <trkpt lat="47.04048" lon="-0.86252">
        <ele>76</ele>
        <time>2022-07-08T18:06:18+02:00</time>
      </trkpt>
      <trkpt lat="47.04054" lon="-0.86241">
        <ele>76</ele>
        <time>2022-07-08T18:06:18+02:00</time>
      </trkpt>
      <trkpt lat="47.04064" lon="-0.86237">
        <ele>76</ele>
        <time>2022-07-08T18:06:18+02:00</time>
      </trkpt>
      <trkpt lat="47.04073" lon="-0.86232">
        <ele>76</ele>
        <time>2022-07-08T18:06:18+02:00</time>
      </trkpt>
      <trkpt lat="47.04082" lon="-0.86229">
        <ele>76</ele>
        <time>2022-07-08T18:06:18+02:00</time>
      </trkpt>
      <trkpt lat="47.04091" lon="-0.86228">
        <ele>76</ele>
        <time>2022-07-08T18:06:18+02:00</time>
      </trkpt>
      <trkpt lat="47.04099" lon="-0.86236">
        <ele>77</ele>
        <time>2022-07-08T18:06:18+02:00</time>
      </trkpt>
      <trkpt lat="47.04106" lon="-0.86245">
        <ele>77</ele>
        <time>2022-07-08T18:06:18+02:00</time>
      </trkpt>
      <trkpt lat="47.04113" lon="-0.86255">
        <ele>76</ele>
        <time>2022-07-08T18:06:18+02:00</time>
      </trkpt>
      <trkpt lat="47.04122" lon="-0.8626">
        <ele>76</ele>
        <time>2022-07-08T18:06:18+02:00</time>
      </trkpt>
      <trkpt lat="47.04131" lon="-0.86266">
        <ele>75</ele>
        <time>2022-07-08T18:06:18+02:00</time>
      </trkpt>
      <trkpt lat="47.04138" lon="-0.86274">
        <ele>75</ele>
        <time>2022-07-08T18:06:18+02:00</time>
      </trkpt>
      <trkpt lat="47.04144" lon="-0.86285">
        <ele>75</ele>
        <time>2022-07-08T18:06:18+02:00</time>
      </trkpt>
      <trkpt lat="47.04152" lon="-0.86295">
        <ele>76</ele>
        <time>2022-07-08T18:06:18+02:00</time>
      </trkpt>
      <trkpt lat="47.04159" lon="-0.86304">
        <ele>76</ele>
        <time>2022-07-08T18:06:18+02:00</time>
      </trkpt>
      <trkpt lat="47.04165" lon="-0.86314">
        <ele>76</ele>
        <time>2022-07-08T18:06:18+02:00</time>
      </trkpt>
      <trkpt lat="47.04171" lon="-0.86324">
        <ele>76</ele>
        <time>2022-07-08T18:06:18+02:00</time>
      </trkpt>
      <trkpt lat="47.04179" lon="-0.86333">
        <ele>75</ele>
        <time>2022-07-08T18:06:18+02:00</time>
      </trkpt>
      <trkpt lat="47.0418" lon="-0.86347">
        <ele>75</ele>
        <time>2022-07-08T18:06:18+02:00</time>
      </trkpt>
      <trkpt lat="47.04178" lon="-0.86362">
        <ele>76</ele>
        <time>2022-07-08T18:06:18+02:00</time>
      </trkpt>
      <trkpt lat="47.04182" lon="-0.86374">
        <ele>77</ele>
        <time>2022-07-08T18:06:18+02:00</time>
      </trkpt>
      <trkpt lat="47.0419" lon="-0.86383">
        <ele>77</ele>
        <time>2022-07-08T18:06:18+02:00</time>
      </trkpt>
      <trkpt lat="47.042" lon="-0.86384">
        <ele>76</ele>
        <time>2022-07-08T18:06:18+02:00</time>
      </trkpt>
      <trkpt lat="47.0421" lon="-0.86379">
        <ele>76</ele>
        <time>2022-07-08T18:06:18+02:00</time>
      </trkpt>
      <trkpt lat="47.04219" lon="-0.86372">
        <ele>77</ele>
        <time>2022-07-08T18:06:18+02:00</time>
      </trkpt>
      <trkpt lat="47.04227" lon="-0.86363">
        <ele>77</ele>
        <time>2022-07-08T18:06:18+02:00</time>
      </trkpt>
      <trkpt lat="47.04235" lon="-0.86356">
        <ele>77</ele>
        <time>2022-07-08T18:06:18+02:00</time>
      </trkpt>
      <trkpt lat="47.04243" lon="-0.86347">
        <ele>76</ele>
        <time>2022-07-08T18:06:18+02:00</time>
      </trkpt>
      <trkpt lat="47.04253" lon="-0.86345">
        <ele>76</ele>
        <time>2022-07-08T18:06:18+02:00</time>
      </trkpt>
      <trkpt lat="47.04262" lon="-0.86351">
        <ele>76</ele>
        <time>2022-07-08T18:06:18+02:00</time>
      </trkpt>
      <trkpt lat="47.04268" lon="-0.86363">
        <ele>75</ele>
        <time>2022-07-08T18:06:18+02:00</time>
      </trkpt>
      <trkpt lat="47.04273" lon="-0.86375">
        <ele>76</ele>
        <time>2022-07-08T18:06:18+02:00</time>
      </trkpt>
      <trkpt lat="47.04279" lon="-0.86387">
        <ele>76</ele>
        <time>2022-07-08T18:06:18+02:00</time>
      </trkpt>
      <trkpt lat="47.04284" lon="-0.86398">
        <ele>75</ele>
        <time>2022-07-08T18:06:18+02:00</time>
      </trkpt>
      <trkpt lat="47.04287" lon="-0.86412">
        <ele>77</ele>
        <time>2022-07-08T18:06:18+02:00</time>
      </trkpt>
      <trkpt lat="47.04296" lon="-0.8642">
        <ele>76</ele>
        <time>2022-07-08T18:06:18+02:00</time>
      </trkpt>
      <trkpt lat="47.04306" lon="-0.86423">
        <ele>77</ele>
        <time>2022-07-08T18:06:18+02:00</time>
      </trkpt>
      <trkpt lat="47.04316" lon="-0.86425">
        <ele>78</ele>
        <time>2022-07-08T18:06:18+02:00</time>
      </trkpt>
      <trkpt lat="47.04326" lon="-0.86424">
        <ele>77</ele>
        <time>2022-07-08T18:06:18+02:00</time>
      </trkpt>
      <trkpt lat="47.04336" lon="-0.86424">
        <ele>78</ele>
        <time>2022-07-08T18:06:18+02:00</time>
      </trkpt>
      <trkpt lat="47.04346" lon="-0.86424">
        <ele>77</ele>
        <time>2022-07-08T18:06:18+02:00</time>
      </trkpt>
      <trkpt lat="47.04356" lon="-0.86424">
        <ele>78</ele>
        <time>2022-07-08T18:06:18+02:00</time>
      </trkpt>
      <trkpt lat="47.04366" lon="-0.86424">
        <ele>77</ele>
        <time>2022-07-08T18:06:18+02:00</time>
      </trkpt>
      <trkpt lat="47.04376" lon="-0.86426">
        <ele>78</ele>
        <time>2022-07-08T18:06:18+02:00</time>
      </trkpt>
      <trkpt lat="47.04385" lon="-0.86432">
        <ele>78</ele>
        <time>2022-07-08T18:06:18+02:00</time>
      </trkpt>
      <trkpt lat="47.04393" lon="-0.86438">
        <ele>79</ele>
        <time>2022-07-08T18:06:18+02:00</time>
      </trkpt>
      <trkpt lat="47.04402" lon="-0.86435">
        <ele>78</ele>
        <time>2022-07-08T18:06:18+02:00</time>
      </trkpt>
      <trkpt lat="47.0441" lon="-0.86428">
        <ele>77</ele>
        <time>2022-07-08T18:06:18+02:00</time>
      </trkpt>
      <trkpt lat="47.0442" lon="-0.86424">
        <ele>78</ele>
        <time>2022-07-08T18:06:18+02:00</time>
      </trkpt>
      <trkpt lat="47.0443" lon="-0.86423">
        <ele>77</ele>
        <time>2022-07-08T18:06:18+02:00</time>
      </trkpt>
      <trkpt lat="47.0444" lon="-0.86424">
        <ele>77</ele>
        <time>2022-07-08T18:06:18+02:00</time>
      </trkpt>
      <trkpt lat="47.04449" lon="-0.86425">
        <ele>77</ele>
        <time>2022-07-08T18:06:18+02:00</time>
      </trkpt>
      <trkpt lat="47.04458" lon="-0.86427">
        <ele>77</ele>
        <time>2022-07-08T18:06:18+02:00</time>
      </trkpt>
      <trkpt lat="47.04467" lon="-0.86428">
        <ele>77</ele>
        <time>2022-07-08T18:06:18+02:00</time>
      </trkpt>
      <trkpt lat="47.04477" lon="-0.86428">
        <ele>78</ele>
        <time>2022-07-08T18:06:18+02:00</time>
      </trkpt>
      <trkpt lat="47.04486" lon="-0.86432">
        <ele>76</ele>
        <time>2022-07-08T18:06:18+02:00</time>
      </trkpt>
      <trkpt lat="47.04495" lon="-0.86436">
        <ele>77</ele>
        <time>2022-07-08T18:06:18+02:00</time>
      </trkpt>
      <trkpt lat="47.04505" lon="-0.86433">
        <ele>77</ele>
        <time>2022-07-08T18:06:18+02:00</time>
      </trkpt>
      <trkpt lat="47.04514" lon="-0.8643">
        <ele>77</ele>
        <time>2022-07-08T18:06:18+02:00</time>
      </trkpt>
      <trkpt lat="47.04522" lon="-0.86424">
        <ele>76</ele>
        <time>2022-07-08T18:06:18+02:00</time>
      </trkpt>
      <trkpt lat="47.04531" lon="-0.86419">
        <ele>75</ele>
        <time>2022-07-08T18:06:18+02:00</time>
      </trkpt>
      <trkpt lat="47.04539" lon="-0.86412">
        <ele>76</ele>
        <time>2022-07-08T18:06:18+02:00</time>
      </trkpt>
      <trkpt lat="47.04545" lon="-0.864">
        <ele>76</ele>
        <time>2022-07-08T18:06:18+02:00</time>
      </trkpt>
      <trkpt lat="47.04554" lon="-0.86392">
        <ele>75</ele>
        <time>2022-07-08T18:06:18+02:00</time>
      </trkpt>
      <trkpt lat="47.04563" lon="-0.86385">
        <ele>75</ele>
        <time>2022-07-08T18:06:18+02:00</time>
      </trkpt>
      <trkpt lat="47.04574" lon="-0.86385">
        <ele>74</ele>
        <time>2022-07-08T18:06:18+02:00</time>
      </trkpt>
      <trkpt lat="47.04583" lon="-0.86388">
        <ele>75</ele>
        <time>2022-07-08T18:06:18+02:00</time>
      </trkpt>
      <trkpt lat="47.04592" lon="-0.86393">
        <ele>75</ele>
        <time>2022-07-08T18:06:18+02:00</time>
      </trkpt>
      <trkpt lat="47.04601" lon="-0.86395">
        <ele>76</ele>
        <time>2022-07-08T18:06:18+02:00</time>
      </trkpt>
      <trkpt lat="47.0461" lon="-0.86398">
        <ele>76</ele>
        <time>2022-07-08T18:06:18+02:00</time>
      </trkpt>
      <trkpt lat="47.0462" lon="-0.86402">
        <ele>76</ele>
        <time>2022-07-08T18:06:18+02:00</time>
      </trkpt>
      <trkpt lat="47.04629" lon="-0.86407">
        <ele>76</ele>
        <time>2022-07-08T18:06:18+02:00</time>
      </trkpt>
      <trkpt lat="47.04637" lon="-0.86413">
        <ele>76</ele>
        <time>2022-07-08T18:06:18+02:00</time>
      </trkpt>
      <trkpt lat="47.04646" lon="-0.86416">
        <ele>76</ele>
        <time>2022-07-08T18:06:18+02:00</time>
      </trkpt>
      <trkpt lat="47.04656" lon="-0.86418">
        <ele>76</ele>
        <time>2022-07-08T18:06:18+02:00</time>
      </trkpt>
      <trkpt lat="47.04666" lon="-0.86421">
        <ele>76</ele>
        <time>2022-07-08T18:06:18+02:00</time>
      </trkpt>
      <trkpt lat="47.04675" lon="-0.86421">
        <ele>75</ele>
        <time>2022-07-08T18:06:18+02:00</time>
      </trkpt>
      <trkpt lat="47.04685" lon="-0.86422">
        <ele>76</ele>
        <time>2022-07-08T18:06:18+02:00</time>
      </trkpt>
      <trkpt lat="47.04694" lon="-0.86429">
        <ele>77</ele>
        <time>2022-07-08T18:06:18+02:00</time>
      </trkpt>
      <trkpt lat="47.04695" lon="-0.86443">
        <ele>75</ele>
        <time>2022-07-08T18:06:18+02:00</time>
      </trkpt>
      <trkpt lat="47.04693" lon="-0.86457">
        <ele>76</ele>
        <time>2022-07-08T18:06:18+02:00</time>
      </trkpt>
      <trkpt lat="47.04691" lon="-0.86471">
        <ele>76</ele>
        <time>2022-07-08T18:06:18+02:00</time>
      </trkpt>
      <trkpt lat="47.04692" lon="-0.86486">
        <ele>76</ele>
        <time>2022-07-08T18:06:18+02:00</time>
      </trkpt>
      <trkpt lat="47.04694" lon="-0.86499">
        <ele>75</ele>
        <time>2022-07-08T18:06:18+02:00</time>
      </trkpt>
      <trkpt lat="47.04694" lon="-0.86514">
        <ele>77</ele>
        <time>2022-07-08T18:06:18+02:00</time>
      </trkpt>
      <trkpt lat="47.04697" lon="-0.86527">
        <ele>75</ele>
        <time>2022-07-08T18:06:18+02:00</time>
      </trkpt>
      <trkpt lat="47.04698" lon="-0.86541">
        <ele>75</ele>
        <time>2022-07-08T18:06:18+02:00</time>
      </trkpt>
      <trkpt lat="47.04696" lon="-0.86556">
        <ele>75</ele>
        <time>2022-07-08T18:06:18+02:00</time>
      </trkpt>
      <trkpt lat="47.04692" lon="-0.8657">
        <ele>75</ele>
        <time>2022-07-08T18:06:18+02:00</time>
      </trkpt>
      <trkpt lat="47.0469" lon="-0.86583">
        <ele>75</ele>
        <time>2022-07-08T18:06:18+02:00</time>
      </trkpt>
      <trkpt lat="47.04684" lon="-0.86596">
        <ele>75</ele>
        <time>2022-07-08T18:06:18+02:00</time>
      </trkpt>
      <trkpt lat="47.04674" lon="-0.86599">
        <ele>75</ele>
        <time>2022-07-08T18:06:18+02:00</time>
      </trkpt>
      <trkpt lat="47.04666" lon="-0.86593">
        <ele>75</ele>
        <time>2022-07-08T18:06:18+02:00</time>
      </trkpt>
      <trkpt lat="47.04657" lon="-0.8659">
        <ele>76</ele>
        <time>2022-07-08T18:06:18+02:00</time>
      </trkpt>
      <trkpt lat="47.04649" lon="-0.86596">
        <ele>76</ele>
        <time>2022-07-08T18:06:18+02:00</time>
      </trkpt>
      <trkpt lat="47.04644" lon="-0.86609">
        <ele>76</ele>
        <time>2022-07-08T18:06:18+02:00</time>
      </trkpt>
      <trkpt lat="47.04642" lon="-0.86623">
        <ele>76</ele>
        <time>2022-07-08T18:06:18+02:00</time>
      </trkpt>
      <trkpt lat="47.04642" lon="-0.86636">
        <ele>75</ele>
        <time>2022-07-08T18:06:18+02:00</time>
      </trkpt>
      <trkpt lat="47.04641" lon="-0.86651">
        <ele>75</ele>
        <time>2022-07-08T18:06:18+02:00</time>
      </trkpt>
      <trkpt lat="47.04642" lon="-0.86666">
        <ele>76</ele>
        <time>2022-07-08T18:06:18+02:00</time>
      </trkpt>
      <trkpt lat="47.04641" lon="-0.8668">
        <ele>75</ele>
        <time>2022-07-08T18:06:18+02:00</time>
      </trkpt>
      <trkpt lat="47.04637" lon="-0.86693">
        <ele>75</ele>
        <time>2022-07-08T18:06:18+02:00</time>
      </trkpt>
      <trkpt lat="47.04628" lon="-0.86697">
        <ele>76</ele>
        <time>2022-07-08T18:06:18+02:00</time>
      </trkpt>
      <trkpt lat="47.04619" lon="-0.86692">
        <ele>77</ele>
        <time>2022-07-08T18:06:18+02:00</time>
      </trkpt>
      <trkpt lat="47.04609" lon="-0.86696">
        <ele>76</ele>
        <time>2022-07-08T18:06:18+02:00</time>
      </trkpt>
      <trkpt lat="47.046" lon="-0.867">
        <ele>77</ele>
        <time>2022-07-08T18:06:18+02:00</time>
      </trkpt>
      <trkpt lat="47.04592" lon="-0.86706">
        <ele>77</ele>
        <time>2022-07-08T18:06:18+02:00</time>
      </trkpt>
      <trkpt lat="47.04585" lon="-0.86716">
        <ele>77</ele>
        <time>2022-07-08T18:06:18+02:00</time>
      </trkpt>
      <trkpt lat="47.04579" lon="-0.86726">
        <ele>77</ele>
        <time>2022-07-08T18:06:18+02:00</time>
      </trkpt>
      <trkpt lat="47.04576" lon="-0.8674">
        <ele>77</ele>
        <time>2022-07-08T18:06:18+02:00</time>
      </trkpt>
      <trkpt lat="47.04575" lon="-0.86754">
        <ele>77</ele>
        <time>2022-07-08T18:06:18+02:00</time>
      </trkpt>
      <trkpt lat="47.04577" lon="-0.86768">
        <ele>77</ele>
        <time>2022-07-08T18:06:18+02:00</time>
      </trkpt>
      <trkpt lat="47.04581" lon="-0.86781">
        <ele>77</ele>
        <time>2022-07-08T18:06:18+02:00</time>
      </trkpt>
      <trkpt lat="47.04586" lon="-0.86792">
        <ele>76</ele>
        <time>2022-07-08T18:06:18+02:00</time>
      </trkpt>
      <trkpt lat="47.04592" lon="-0.86804">
        <ele>76</ele>
        <time>2022-07-08T18:06:18+02:00</time>
      </trkpt>
      <trkpt lat="47.046" lon="-0.86814">
        <ele>76</ele>
        <time>2022-07-08T18:06:18+02:00</time>
      </trkpt>
      <trkpt lat="47.04606" lon="-0.86826">
        <ele>77</ele>
        <time>2022-07-08T18:06:18+02:00</time>
      </trkpt>
      <trkpt lat="47.04611" lon="-0.86837">
        <ele>77</ele>
        <time>2022-07-08T18:06:18+02:00</time>
      </trkpt>
      <trkpt lat="47.04614" lon="-0.86851">
        <ele>76</ele>
        <time>2022-07-08T18:06:18+02:00</time>
      </trkpt>
      <trkpt lat="47.04615" lon="-0.86864">
        <ele>75</ele>
        <time>2022-07-08T18:06:18+02:00</time>
      </trkpt>
      <trkpt lat="47.04616" lon="-0.86878">
        <ele>75</ele>
        <time>2022-07-08T18:06:18+02:00</time>
      </trkpt>
      <trkpt lat="47.04617" lon="-0.86891">
        <ele>75</ele>
        <time>2022-07-08T18:06:18+02:00</time>
      </trkpt>
      <trkpt lat="47.0462" lon="-0.86904">
        <ele>76</ele>
        <time>2022-07-08T18:06:18+02:00</time>
      </trkpt>
      <trkpt lat="47.04622" lon="-0.86918">
        <ele>75</ele>
        <time>2022-07-08T18:06:18+02:00</time>
      </trkpt>
      <trkpt lat="47.04626" lon="-0.86931">
        <ele>75</ele>
        <time>2022-07-08T18:06:18+02:00</time>
      </trkpt>
      <trkpt lat="47.0463" lon="-0.86943">
        <ele>75</ele>
        <time>2022-07-08T18:06:18+02:00</time>
      </trkpt>
      <trkpt lat="47.04632" lon="-0.86957">
        <ele>75</ele>
        <time>2022-07-08T18:06:18+02:00</time>
      </trkpt>
      <trkpt lat="47.04635" lon="-0.86971">
        <ele>75</ele>
        <time>2022-07-08T18:06:18+02:00</time>
      </trkpt>
      <trkpt lat="47.04638" lon="-0.86985">
        <ele>75</ele>
        <time>2022-07-08T18:06:18+02:00</time>
      </trkpt>
      <trkpt lat="47.0464" lon="-0.86999">
        <ele>75</ele>
        <time>2022-07-08T18:06:18+02:00</time>
      </trkpt>
      <trkpt lat="47.04642" lon="-0.87013">
        <ele>74</ele>
        <time>2022-07-08T18:06:18+02:00</time>
      </trkpt>
      <trkpt lat="47.04643" lon="-0.87028">
        <ele>76</ele>
        <time>2022-07-08T18:06:18+02:00</time>
      </trkpt>
      <trkpt lat="47.04643" lon="-0.87042">
        <ele>77</ele>
        <time>2022-07-08T18:06:18+02:00</time>
      </trkpt>
      <trkpt lat="47.04644" lon="-0.87055">
        <ele>77</ele>
        <time>2022-07-08T18:06:18+02:00</time>
      </trkpt>
      <trkpt lat="47.04653" lon="-0.87063">
        <ele>77</ele>
        <time>2022-07-08T18:06:18+02:00</time>
      </trkpt>
      <trkpt lat="47.04663" lon="-0.87058">
        <ele>76</ele>
        <time>2022-07-08T18:06:18+02:00</time>
      </trkpt>
      <trkpt lat="47.04672" lon="-0.87053">
        <ele>76</ele>
        <time>2022-07-08T18:06:18+02:00</time>
      </trkpt>
      <trkpt lat="47.0468" lon="-0.87047">
        <ele>75</ele>
        <time>2022-07-08T18:06:18+02:00</time>
      </trkpt>
      <trkpt lat="47.04688" lon="-0.8704">
        <ele>76</ele>
        <time>2022-07-08T18:06:18+02:00</time>
      </trkpt>
      <trkpt lat="47.04697" lon="-0.87039">
        <ele>75</ele>
        <time>2022-07-08T18:06:18+02:00</time>
      </trkpt>
      <trkpt lat="47.04707" lon="-0.87033">
        <ele>72</ele>
        <time>2022-07-08T18:06:18+02:00</time>
      </trkpt>
      <trkpt lat="47.04715" lon="-0.87024">
        <ele>73</ele>
        <time>2022-07-08T18:06:18+02:00</time>
      </trkpt>
      <trkpt lat="47.04723" lon="-0.87017">
        <ele>73</ele>
        <time>2022-07-08T18:06:18+02:00</time>
      </trkpt>
      <trkpt lat="47.04733" lon="-0.87015">
        <ele>76</ele>
        <time>2022-07-08T18:06:18+02:00</time>
      </trkpt>
      <trkpt lat="47.04738" lon="-0.87026">
        <ele>76</ele>
        <time>2022-07-08T18:06:18+02:00</time>
      </trkpt>
      <trkpt lat="47.04743" lon="-0.87037">
        <ele>75</ele>
        <time>2022-07-08T18:06:18+02:00</time>
      </trkpt>
      <trkpt lat="47.04749" lon="-0.87048">
        <ele>75</ele>
        <time>2022-07-08T18:06:18+02:00</time>
      </trkpt>
      <trkpt lat="47.04754" lon="-0.87059">
        <ele>76</ele>
        <time>2022-07-08T18:06:18+02:00</time>
      </trkpt>
      <trkpt lat="47.04759" lon="-0.87072">
        <ele>76</ele>
        <time>2022-07-08T18:06:18+02:00</time>
      </trkpt>
      <trkpt lat="47.04762" lon="-0.87084">
        <ele>75</ele>
        <time>2022-07-08T18:06:18+02:00</time>
      </trkpt>
      <trkpt lat="47.04766" lon="-0.87098">
        <ele>74</ele>
        <time>2022-07-08T18:06:18+02:00</time>
      </trkpt>
      <trkpt lat="47.0477" lon="-0.87112">
        <ele>75</ele>
        <time>2022-07-08T18:06:18+02:00</time>
      </trkpt>
      <trkpt lat="47.04773" lon="-0.87126">
        <ele>74</ele>
        <time>2022-07-08T18:06:18+02:00</time>
      </trkpt>
      <trkpt lat="47.04778" lon="-0.87139">
        <ele>74</ele>
        <time>2022-07-08T18:06:18+02:00</time>
      </trkpt>
      <trkpt lat="47.04783" lon="-0.8715">
        <ele>74</ele>
        <time>2022-07-08T18:06:18+02:00</time>
      </trkpt>
      <trkpt lat="47.04788" lon="-0.87163">
        <ele>74</ele>
        <time>2022-07-08T18:06:18+02:00</time>
      </trkpt>
      <trkpt lat="47.04794" lon="-0.87174">
        <ele>74</ele>
        <time>2022-07-08T18:06:18+02:00</time>
      </trkpt>
      <trkpt lat="47.048" lon="-0.87185">
        <ele>75</ele>
        <time>2022-07-08T18:06:18+02:00</time>
      </trkpt>
      <trkpt lat="47.0481" lon="-0.87188">
        <ele>75</ele>
        <time>2022-07-08T18:06:18+02:00</time>
      </trkpt>
      <trkpt lat="47.0482" lon="-0.8719">
        <ele>74</ele>
        <time>2022-07-08T18:06:18+02:00</time>
      </trkpt>
      <trkpt lat="47.0483" lon="-0.87191">
        <ele>75</ele>
        <time>2022-07-08T18:06:18+02:00</time>
      </trkpt>
      <trkpt lat="47.0484" lon="-0.87187">
        <ele>75</ele>
        <time>2022-07-08T18:06:18+02:00</time>
      </trkpt>
      <trkpt lat="47.04849" lon="-0.87185">
        <ele>76</ele>
        <time>2022-07-08T18:06:18+02:00</time>
      </trkpt>
      <trkpt lat="47.04858" lon="-0.87186">
        <ele>75</ele>
        <time>2022-07-08T18:06:18+02:00</time>
      </trkpt>
      <trkpt lat="47.04868" lon="-0.8719">
        <ele>76</ele>
        <time>2022-07-08T18:06:18+02:00</time>
      </trkpt>
      <trkpt lat="47.04877" lon="-0.87189">
        <ele>76</ele>
        <time>2022-07-08T18:06:18+02:00</time>
      </trkpt>
      <trkpt lat="47.04886" lon="-0.87194">
        <ele>75</ele>
        <time>2022-07-08T18:06:18+02:00</time>
      </trkpt>
      <trkpt lat="47.04895" lon="-0.87201">
        <ele>76</ele>
        <time>2022-07-08T18:06:18+02:00</time>
      </trkpt>
      <trkpt lat="47.04901" lon="-0.87212">
        <ele>75</ele>
        <time>2022-07-08T18:06:18+02:00</time>
      </trkpt>
      <trkpt lat="47.04907" lon="-0.87223">
        <ele>77</ele>
        <time>2022-07-08T18:06:18+02:00</time>
      </trkpt>
      <trkpt lat="47.04915" lon="-0.87231">
        <ele>77</ele>
        <time>2022-07-08T18:06:18+02:00</time>
      </trkpt>
      <trkpt lat="47.04921" lon="-0.87242">
        <ele>76</ele>
        <time>2022-07-08T18:06:18+02:00</time>
      </trkpt>
      <trkpt lat="47.04926" lon="-0.87253">
        <ele>76</ele>
        <time>2022-07-08T18:06:18+02:00</time>
      </trkpt>
      <trkpt lat="47.0493" lon="-0.87267">
        <ele>76</ele>
        <time>2022-07-08T18:06:18+02:00</time>
      </trkpt>
      <trkpt lat="47.04926" lon="-0.8728">
        <ele>75</ele>
        <time>2022-07-08T18:06:18+02:00</time>
      </trkpt>
      <trkpt lat="47.04922" lon="-0.87293">
        <ele>75</ele>
        <time>2022-07-08T18:06:18+02:00</time>
      </trkpt>
      <trkpt lat="47.0493" lon="-0.87308">
        <ele>74</ele>
        <time>2022-07-08T18:06:18+02:00</time>
      </trkpt>
      <trkpt lat="47.04942" lon="-0.87331">
        <ele>75</ele>
        <time>2022-07-08T18:06:18+02:00</time>
      </trkpt>
      <trkpt lat="47.0495" lon="-0.8734">
        <ele>75</ele>
        <time>2022-07-08T18:06:18+02:00</time>
      </trkpt>
      <trkpt lat="47.04955" lon="-0.87352">
        <ele>75</ele>
        <time>2022-07-08T18:06:18+02:00</time>
      </trkpt>
      <trkpt lat="47.04959" lon="-0.87363">
        <ele>76</ele>
        <time>2022-07-08T18:06:18+02:00</time>
      </trkpt>
      <trkpt lat="47.04967" lon="-0.87374">
        <ele>75</ele>
        <time>2022-07-08T18:06:18+02:00</time>
      </trkpt>
      <trkpt lat="47.04974" lon="-0.87386">
        <ele>75</ele>
        <time>2022-07-08T18:06:18+02:00</time>
      </trkpt>
      <trkpt lat="47.04983" lon="-0.8739">
        <ele>76</ele>
        <time>2022-07-08T18:06:18+02:00</time>
      </trkpt>
      <trkpt lat="47.04992" lon="-0.87393">
        <ele>76</ele>
        <time>2022-07-08T18:06:18+02:00</time>
      </trkpt>
      <trkpt lat="47.05002" lon="-0.87394">
        <ele>76</ele>
        <time>2022-07-08T18:06:18+02:00</time>
      </trkpt>
      <trkpt lat="47.05012" lon="-0.87396">
        <ele>77</ele>
        <time>2022-07-08T18:06:18+02:00</time>
      </trkpt>
      <trkpt lat="47.0501" lon="-0.87409">
        <ele>76</ele>
        <time>2022-07-08T18:06:18+02:00</time>
      </trkpt>
      <trkpt lat="47.05008" lon="-0.87422">
        <ele>76</ele>
        <time>2022-07-08T18:06:18+02:00</time>
      </trkpt>
      <trkpt lat="47.05001" lon="-0.87431">
        <ele>75</ele>
        <time>2022-07-08T18:06:18+02:00</time>
      </trkpt>
      <trkpt lat="47.04992" lon="-0.87429">
        <ele>77</ele>
        <time>2022-07-08T18:06:18+02:00</time>
      </trkpt>
      <trkpt lat="47.04982" lon="-0.87431">
        <ele>76</ele>
        <time>2022-07-08T18:06:18+02:00</time>
      </trkpt>
      <trkpt lat="47.04973" lon="-0.87435">
        <ele>77</ele>
        <time>2022-07-08T18:06:18+02:00</time>
      </trkpt>
      <trkpt lat="47.04966" lon="-0.87445">
        <ele>78</ele>
        <time>2022-07-08T18:06:18+02:00</time>
      </trkpt>
      <trkpt lat="47.04959" lon="-0.87454">
        <ele>78</ele>
        <time>2022-07-08T18:06:18+02:00</time>
      </trkpt>
      <trkpt lat="47.04953" lon="-0.87466">
        <ele>77</ele>
        <time>2022-07-08T18:06:18+02:00</time>
      </trkpt>
      <trkpt lat="47.04951" lon="-0.8748">
        <ele>77</ele>
        <time>2022-07-08T18:06:18+02:00</time>
      </trkpt>
      <trkpt lat="47.04947" lon="-0.87492">
        <ele>77</ele>
        <time>2022-07-08T18:06:18+02:00</time>
      </trkpt>
      <trkpt lat="47.04942" lon="-0.87503">
        <ele>77</ele>
        <time>2022-07-08T18:06:18+02:00</time>
      </trkpt>
      <trkpt lat="47.04937" lon="-0.87515">
        <ele>78</ele>
        <time>2022-07-08T18:06:18+02:00</time>
      </trkpt>
      <trkpt lat="47.04934" lon="-0.87528">
        <ele>78</ele>
        <time>2022-07-08T18:06:18+02:00</time>
      </trkpt>
      <trkpt lat="47.04929" lon="-0.87541">
        <ele>79</ele>
        <time>2022-07-08T18:06:18+02:00</time>
      </trkpt>
      <trkpt lat="47.04925" lon="-0.87553">
        <ele>79</ele>
        <time>2022-07-08T18:06:18+02:00</time>
      </trkpt>
      <trkpt lat="47.04922" lon="-0.87566">
        <ele>80</ele>
        <time>2022-07-08T18:06:18+02:00</time>
      </trkpt>
      <trkpt lat="47.04926" lon="-0.87578">
        <ele>81</ele>
        <time>2022-07-08T18:06:18+02:00</time>
      </trkpt>
      <trkpt lat="47.04934" lon="-0.87588">
        <ele>81</ele>
        <time>2022-07-08T18:06:18+02:00</time>
      </trkpt>
      <trkpt lat="47.04941" lon="-0.87599">
        <ele>82</ele>
        <time>2022-07-08T18:06:18+02:00</time>
      </trkpt>
      <trkpt lat="47.04945" lon="-0.8761">
        <ele>82</ele>
        <time>2022-07-08T18:06:18+02:00</time>
      </trkpt>
      <trkpt lat="47.04952" lon="-0.8762">
        <ele>83</ele>
        <time>2022-07-08T18:06:18+02:00</time>
      </trkpt>
      <trkpt lat="47.0496" lon="-0.87636">
        <ele>79</ele>
        <time>2022-07-08T18:06:18+02:00</time>
      </trkpt>
      <trkpt lat="47.04967" lon="-0.87646">
        <ele>79</ele>
        <time>2022-07-08T18:06:18+02:00</time>
      </trkpt>
    </trkseg>
  </trk>
</gpx>